<?xml version='1.0' encoding='UTF-8'?>
<gpx xmlns="http://www.topografix.com/GPX/1/1" creator="www.balnam.be" version="1.1" xmlns:xsi="http://www.w3.org/2001/XMLSchema-instance" xsi:schemaLocation="http://www.topografix.com/GPX/1/1 http://www.topografix.com/GPX/1/1/gpx.xsd">
<trk>
<name>bwvbg1</name>
<cmt>v</cmt>
<desc>Bierges Chemin n°1 Rue de L'Etoile / Rue de Champles / Rue des Ramiers / Rue Cerisier d'Haine</desc>
<link href="https://chemins.be/bierges/chemin/1"/><trkseg>
<trkpt lat="50.710624" lon="4.564928"><time>2026-05-08T07:08:50Z</time></trkpt>
<trkpt lat="50.712884" lon="4.568081"><time>2026-05-08T07:18:50Z</time></trkpt>
</trkseg></trk>
<trk>
<name>bwvbg1</name>
<cmt>r</cmt>
<desc>Bierges Chemin n°1 Rue de L'Etoile / Rue de Champles / Rue des Ramiers / Rue Cerisier d'Haine</desc>
<link href="https://chemins.be/bierges/chemin/1"/><trkseg>
<trkpt lat="50.712884" lon="4.568081"><time>2026-05-08T07:18:50Z</time></trkpt>
<trkpt lat="50.717347" lon="4.575888"><time>2026-05-08T07:28:50Z</time></trkpt>
<trkpt lat="50.717011" lon="4.578501"><time>2026-05-08T07:38:50Z</time></trkpt>
<trkpt lat="50.717261" lon="4.578690"><time>2026-05-08T07:48:50Z</time></trkpt>
<trkpt lat="50.718782" lon="4.577805"><time>2026-05-08T07:58:50Z</time></trkpt>
<trkpt lat="50.719695" lon="4.578140"><time>2026-05-08T08:08:50Z</time></trkpt>
</trkseg></trk>
<trk>
<name>bwvbg1</name>
<cmt>s</cmt>
<desc>Bierges Chemin n°1 Rue de L'Etoile / Rue de Champles / Rue des Ramiers / Rue Cerisier d'Haine</desc>
<link href="https://chemins.be/bierges/chemin/1"/><trkseg>
<trkpt lat="50.719695" lon="4.578140"><time>2026-05-08T08:08:50Z</time></trkpt>
<trkpt lat="50.720723" lon="4.578268"><time>2026-05-08T08:18:50Z</time></trkpt>
<trkpt lat="50.721505" lon="4.578484"><time>2026-05-08T08:28:50Z</time></trkpt>
</trkseg></trk>
<trk>
<name>bwvbg1</name>
<cmt>r</cmt>
<desc>Bierges Chemin n°1 Rue de L'Etoile / Rue de Champles / Rue des Ramiers / Rue Cerisier d'Haine</desc>
<link href="https://chemins.be/bierges/chemin/1"/><trkseg>
<trkpt lat="50.721505" lon="4.578484"><time>2026-05-08T08:28:50Z</time></trkpt>
<trkpt lat="50.722862" lon="4.578872"><time>2026-05-08T08:38:50Z</time></trkpt>
<trkpt lat="50.724155" lon="4.579416"><time>2026-05-08T08:48:50Z</time></trkpt>
</trkseg></trk>
<trk>
<name>bwvbg1</name>
<cmt>v</cmt>
<desc>Bierges Chemin n°1 Rue de L'Etoile / Rue de Champles / Rue des Ramiers / Rue Cerisier d'Haine</desc>
<link href="https://chemins.be/bierges/chemin/1"/><trkseg>
<trkpt lat="50.724155" lon="4.579416"><time>2026-05-08T08:48:50Z</time></trkpt>
<trkpt lat="50.725216" lon="4.579582"><time>2026-05-08T08:58:50Z</time></trkpt>
<trkpt lat="50.726167" lon="4.580123"><time>2026-05-08T09:08:50Z</time></trkpt>
<trkpt lat="50.726742" lon="4.580223"><time>2026-05-08T09:18:50Z</time></trkpt>
<trkpt lat="50.728697" lon="4.579853"><time>2026-05-08T09:28:50Z</time></trkpt>
<trkpt lat="50.730475" lon="4.579374"><time>2026-05-08T09:38:50Z</time></trkpt>
<trkpt lat="50.731190" lon="4.581728"><time>2026-05-08T09:48:50Z</time></trkpt>
<trkpt lat="50.731262" lon="4.581700"><time>2026-05-08T09:58:50Z</time></trkpt>
<trkpt lat="50.732068" lon="4.583602"><time>2026-05-08T10:08:50Z</time></trkpt>
</trkseg>
</trk>
<trk>
<name>bwvbg10</name>
<cmt>v</cmt>
<desc>Bierges Chemin n°10 Chemin de la Sucrerie</desc>
<link href="https://chemins.be/bierges/chemin/10"/><trkseg>
<trkpt lat="50.714540" lon="4.582460"><time>2026-05-08T07:08:50Z</time></trkpt>
<trkpt lat="50.714790" lon="4.583042"><time>2026-05-08T07:18:50Z</time></trkpt>
<trkpt lat="50.714871" lon="4.583184"><time>2026-05-08T07:28:50Z</time></trkpt>
<trkpt lat="50.714907" lon="4.583339"><time>2026-05-08T07:38:50Z</time></trkpt>
<trkpt lat="50.714851" lon="4.584288"><time>2026-05-08T07:48:50Z</time></trkpt>
<trkpt lat="50.714778" lon="4.584840"><time>2026-05-08T07:58:50Z</time></trkpt>
<trkpt lat="50.714769" lon="4.585024"><time>2026-05-08T08:08:50Z</time></trkpt>
<trkpt lat="50.714777" lon="4.585208"><time>2026-05-08T08:18:50Z</time></trkpt>
<trkpt lat="50.714866" lon="4.585746"><time>2026-05-08T08:28:50Z</time></trkpt>
<trkpt lat="50.714936" lon="4.586851"><time>2026-05-08T08:38:50Z</time></trkpt>
<trkpt lat="50.715007" lon="4.587220"><time>2026-05-08T08:48:50Z</time></trkpt>
<trkpt lat="50.715096" lon="4.587914"><time>2026-05-08T08:58:50Z</time></trkpt>
<trkpt lat="50.715270" lon="4.589394"><time>2026-05-08T09:08:50Z</time></trkpt>
<trkpt lat="50.716046" lon="4.590341"><time>2026-05-08T09:18:50Z</time></trkpt>
<trkpt lat="50.716254" lon="4.590556"><time>2026-05-08T09:28:50Z</time></trkpt>
<trkpt lat="50.716193" lon="4.591189"><time>2026-05-08T09:38:50Z</time></trkpt>
<trkpt lat="50.714531" lon="4.595602"><time>2026-05-08T09:48:50Z</time></trkpt>
<trkpt lat="50.714993" lon="4.598399"><time>2026-05-08T09:58:50Z</time></trkpt>
</trkseg></trk>
<trk>
<name>bwvbg10</name>
<cmt>r</cmt>
<desc>Bierges Chemin n°10 Chemin de la Sucrerie</desc>
<link href="https://chemins.be/bierges/chemin/10"/><trkseg>
<trkpt lat="50.714993" lon="4.598399"><time>2026-05-08T09:58:50Z</time></trkpt>
<trkpt lat="50.715059" lon="4.599549"><time>2026-05-08T10:08:50Z</time></trkpt>
<trkpt lat="50.714827" lon="4.601448"><time>2026-05-08T10:18:50Z</time></trkpt>
<trkpt lat="50.714692" lon="4.601936"><time>2026-05-08T10:28:50Z</time></trkpt>
<trkpt lat="50.714303" lon="4.602585"><time>2026-05-08T10:38:50Z</time></trkpt>
</trkseg></trk>
<trk>
<name>bwvbg10</name>
<cmt>s</cmt>
<desc>Bierges Chemin n°10 Chemin de la Sucrerie</desc>
<link href="https://chemins.be/bierges/chemin/10"/><trkseg>
<trkpt lat="50.714303" lon="4.602585"><time>2026-05-08T10:38:50Z</time></trkpt>
<trkpt lat="50.714486" lon="4.603497"><time>2026-05-08T10:48:50Z</time></trkpt>
</trkseg>
</trk>
<trk>
<name>bwvbg12</name>
<cmt>s</cmt>
<desc>Bierges Chemin n°12 </desc>
<link href="https://chemins.be/bierges/chemin/12"/><trkseg>
<trkpt lat="50.719971" lon="4.586379"><time>2026-05-08T07:08:50Z</time></trkpt>
<trkpt lat="50.720109" lon="4.584935"><time>2026-05-08T07:18:50Z</time></trkpt>
<trkpt lat="50.720382" lon="4.582954"><time>2026-05-08T07:28:50Z</time></trkpt>
</trkseg></trk>
<trk>
<name>bwvbg12</name>
<cmt>d</cmt>
<desc>Bierges Chemin n°12 </desc>
<link href="https://chemins.be/bierges/chemin/12"/><trkseg>
<trkpt lat="50.720382" lon="4.582954"><time>2026-05-08T07:28:50Z</time></trkpt>
<trkpt lat="50.720495" lon="4.580292"><time>2026-05-08T07:38:50Z</time></trkpt>
</trkseg></trk>
<trk>
<name>bwvbg12</name>
<cmt>s</cmt>
<desc>Bierges Chemin n°12 </desc>
<link href="https://chemins.be/bierges/chemin/12"/><trkseg>
<trkpt lat="50.720495" lon="4.580292"><time>2026-05-08T07:38:50Z</time></trkpt>
<trkpt lat="50.720573" lon="4.577007"><time>2026-05-08T07:48:50Z</time></trkpt>
</trkseg>
</trk>
<trk>
<name>bwvbg13</name>
<cmt>s</cmt>
<desc>Bierges Chemin n°13 </desc>
<link href="https://chemins.be/bierges/chemin/13"/><trkseg>
<trkpt lat="50.720251" lon="4.570803"><time>2026-05-08T07:08:50Z</time></trkpt>
<trkpt lat="50.719461" lon="4.570077"><time>2026-05-08T07:18:50Z</time></trkpt>
<trkpt lat="50.719310" lon="4.569128"><time>2026-05-08T07:28:50Z</time></trkpt>
<trkpt lat="50.719564" lon="4.568024"><time>2026-05-08T07:38:50Z</time></trkpt>
</trkseg>
</trk>
<trk>
<name>bwvbg14</name>
<cmt>r</cmt>
<desc>Bierges Chemin n°14 Rue de Champles</desc>
<link href="https://chemins.be/bierges/chemin/14"/><trkseg>
<trkpt lat="50.725443" lon="4.573293"><time>2026-05-08T07:08:50Z</time></trkpt>
<trkpt lat="50.723378" lon="4.575325"><time>2026-05-08T07:18:50Z</time></trkpt>
<trkpt lat="50.722897" lon="4.575542"><time>2026-05-08T07:28:50Z</time></trkpt>
</trkseg></trk>
<trk>
<name>bwvbg14</name>
<cmt>v</cmt>
<desc>Bierges Chemin n°14 Rue de Champles</desc>
<link href="https://chemins.be/bierges/chemin/14"/><trkseg>
<trkpt lat="50.722897" lon="4.575542"><time>2026-05-08T07:28:50Z</time></trkpt>
<trkpt lat="50.722663" lon="4.575725"><time>2026-05-08T07:38:50Z</time></trkpt>
</trkseg></trk>
<trk>
<name>bwvbg14</name>
<cmt>r</cmt>
<desc>Bierges Chemin n°14 Rue de Champles</desc>
<link href="https://chemins.be/bierges/chemin/14"/><trkseg>
<trkpt lat="50.722663" lon="4.575725"><time>2026-05-08T07:38:50Z</time></trkpt>
<trkpt lat="50.720603" lon="4.576791"><time>2026-05-08T07:48:50Z</time></trkpt>
</trkseg>
</trk>
<trk>
<name>bwvbg15</name>
<cmt>v</cmt>
<desc>Bierges Chemin n°15 Chemin de Bierges</desc>
<link href="https://chemins.be/bierges/chemin/15"/><trkseg>
<trkpt lat="50.724139" lon="4.579505"><time>2026-05-08T07:08:50Z</time></trkpt>
<trkpt lat="50.724367" lon="4.581839"><time>2026-05-08T07:18:50Z</time></trkpt>
<trkpt lat="50.724028" lon="4.584771"><time>2026-05-08T07:28:50Z</time></trkpt>
<trkpt lat="50.724003" lon="4.586045"><time>2026-05-08T07:38:50Z</time></trkpt>
<trkpt lat="50.724230" lon="4.587730"><time>2026-05-08T07:48:50Z</time></trkpt>
<trkpt lat="50.724036" lon="4.590328"><time>2026-05-08T07:58:50Z</time></trkpt>
</trkseg>
</trk>
<trk>
<name>bwvbg16</name>
<cmt>r</cmt>
<desc>Bierges Chemin n°16 Rue Cerisier d'Haine</desc>
<link href="https://chemins.be/bierges/chemin/16"/><trkseg>
<trkpt lat="50.728681" lon="4.567029"><time>2026-05-08T07:08:50Z</time></trkpt>
<trkpt lat="50.729236" lon="4.568448"><time>2026-05-08T07:18:50Z</time></trkpt>
</trkseg></trk>
<trk>
<name>bwvbg16</name>
<cmt>v</cmt>
<desc>Bierges Chemin n°16 Rue Cerisier d'Haine</desc>
<link href="https://chemins.be/bierges/chemin/16"/><trkseg>
<trkpt lat="50.729236" lon="4.568448"><time>2026-05-08T07:18:50Z</time></trkpt>
<trkpt lat="50.729933" lon="4.570915"><time>2026-05-08T07:28:50Z</time></trkpt>
<trkpt lat="50.730621" lon="4.573270"><time>2026-05-08T07:38:50Z</time></trkpt>
<trkpt lat="50.730628" lon="4.574516"><time>2026-05-08T07:48:50Z</time></trkpt>
<trkpt lat="50.730120" lon="4.576794"><time>2026-05-08T07:58:50Z</time></trkpt>
<trkpt lat="50.730101" lon="4.577715"><time>2026-05-08T08:08:50Z</time></trkpt>
<trkpt lat="50.730431" lon="4.579232"><time>2026-05-08T08:18:50Z</time></trkpt>
</trkseg>
</trk>
<trk>
<name>bwvbg17</name>
<cmt>r</cmt>
<desc>Bierges Chemin n°17 Rue des Templiers / Sentier des Hirondelles / Barrière du Point du Jour</desc>
<link href="https://chemins.be/bierges/chemin/17"/><trkseg>
<trkpt lat="50.732762" lon="4.557116"><time>2026-05-08T07:08:50Z</time></trkpt>
<trkpt lat="50.732911" lon="4.557760"><time>2026-05-08T07:18:50Z</time></trkpt>
<trkpt lat="50.733889" lon="4.559112"><time>2026-05-08T07:28:50Z</time></trkpt>
<trkpt lat="50.734380" lon="4.559772"><time>2026-05-08T07:38:50Z</time></trkpt>
<trkpt lat="50.734679" lon="4.560708"><time>2026-05-08T07:48:50Z</time></trkpt>
<trkpt lat="50.735125" lon="4.561043"><time>2026-05-08T07:58:50Z</time></trkpt>
<trkpt lat="50.734731" lon="4.562094"><time>2026-05-08T08:08:50Z</time></trkpt>
<trkpt lat="50.733332" lon="4.562845"><time>2026-05-08T08:18:50Z</time></trkpt>
<trkpt lat="50.732680" lon="4.562888"><time>2026-05-08T08:28:50Z</time></trkpt>
<trkpt lat="50.732762" lon="4.564304"><time>2026-05-08T08:38:50Z</time></trkpt>
<trkpt lat="50.730990" lon="4.565188"><time>2026-05-08T08:48:50Z</time></trkpt>
<trkpt lat="50.731240" lon="4.565798"><time>2026-05-08T08:58:50Z</time></trkpt>
<trkpt lat="50.730789" lon="4.566725"><time>2026-05-08T09:08:50Z</time></trkpt>
<trkpt lat="50.730208" lon="4.567416"><time>2026-05-08T09:18:50Z</time></trkpt>
</trkseg></trk>
<trk>
<name>bwvbg17</name>
<cmt>v</cmt>
<desc>Bierges Chemin n°17 Rue des Templiers / Sentier des Hirondelles / Barrière du Point du Jour</desc>
<link href="https://chemins.be/bierges/chemin/17"/><trkseg>
<trkpt lat="50.730208" lon="4.567416"><time>2026-05-08T09:18:50Z</time></trkpt>
<trkpt lat="50.730774" lon="4.569100"><time>2026-05-08T09:28:50Z</time></trkpt>
<trkpt lat="50.731933" lon="4.572480"><time>2026-05-08T09:38:50Z</time></trkpt>
<trkpt lat="50.733361" lon="4.574514"><time>2026-05-08T09:48:50Z</time></trkpt>
<trkpt lat="50.734671" lon="4.575936"><time>2026-05-08T09:58:50Z</time></trkpt>
<trkpt lat="50.736152" lon="4.577048"><time>2026-05-08T10:08:50Z</time></trkpt>
</trkseg></trk>
<trk>
<name>bwvbg17</name>
<cmt>r</cmt>
<desc>Bierges Chemin n°17 Rue des Templiers / Sentier des Hirondelles / Barrière du Point du Jour</desc>
<link href="https://chemins.be/bierges/chemin/17"/><trkseg>
<trkpt lat="50.736152" lon="4.577048"><time>2026-05-08T10:08:50Z</time></trkpt>
<trkpt lat="50.737544" lon="4.577861"><time>2026-05-08T10:18:50Z</time></trkpt>
</trkseg>
</trk>
<trk>
<name>bwvbg19</name>
<cmt>v</cmt>
<desc>Bierges Chemin n°19 Chemin du Cygne / Chemin des Sapins</desc>
<link href="https://chemins.be/bierges/chemin/19"/><trkseg>
<trkpt lat="50.729017" lon="4.554014"><time>2026-05-08T07:08:50Z</time></trkpt>
<trkpt lat="50.728017" lon="4.555455"><time>2026-05-08T07:18:50Z</time></trkpt>
<trkpt lat="50.727718" lon="4.556586"><time>2026-05-08T07:28:50Z</time></trkpt>
<trkpt lat="50.727541" lon="4.557348"><time>2026-05-08T07:38:50Z</time></trkpt>
<trkpt lat="50.727640" lon="4.557650"><time>2026-05-08T07:48:50Z</time></trkpt>
</trkseg>
</trk>
<trk>
<name>bwvbg2</name>
<cmt>d</cmt>
<desc>Bierges Chemin n°2 </desc>
<link href="https://chemins.be/bierges/chemin/2"/><trkseg>
<trkpt lat="50.729877" lon="4.563806"><time>2026-05-08T07:08:50Z</time></trkpt>
<trkpt lat="50.729984" lon="4.562300"><time>2026-05-08T07:18:50Z</time></trkpt>
<trkpt lat="50.730637" lon="4.559398"><time>2026-05-08T07:28:50Z</time></trkpt>
</trkseg></trk>
<trk>
<name>bwvbg2</name>
<cmt>s</cmt>
<desc>Bierges Chemin n°2 </desc>
<link href="https://chemins.be/bierges/chemin/2"/><trkseg>
<trkpt lat="50.730637" lon="4.559398"><time>2026-05-08T07:28:50Z</time></trkpt>
<trkpt lat="50.730725" lon="4.558871"><time>2026-05-08T07:38:50Z</time></trkpt>
<trkpt lat="50.731697" lon="4.557996"><time>2026-05-08T07:48:50Z</time></trkpt>
<trkpt lat="50.731953" lon="4.556768"><time>2026-05-08T07:58:50Z</time></trkpt>
</trkseg></trk>
<trk>
<name>bwvbg2</name>
<cmt>r</cmt>
<desc>Bierges Chemin n°2 </desc>
<link href="https://chemins.be/bierges/chemin/2"/><trkseg>
<trkpt lat="50.731953" lon="4.556768"><time>2026-05-08T07:58:50Z</time></trkpt>
<trkpt lat="50.732574" lon="4.555954"><time>2026-05-08T08:08:50Z</time></trkpt>
<trkpt lat="50.734150" lon="4.553907"><time>2026-05-08T08:18:50Z</time></trkpt>
</trkseg>
</trk>
<trk>
<name>bwvbg20</name>
<cmt>v</cmt>
<desc>Bierges Chemin n°20 </desc>
<link href="https://chemins.be/bierges/chemin/20"/><trkseg>
<trkpt lat="50.732730" lon="4.563798"><time>2026-05-08T07:08:50Z</time></trkpt>
<trkpt lat="50.731888" lon="4.562545"><time>2026-05-08T07:18:50Z</time></trkpt>
<trkpt lat="50.731150" lon="4.560464"><time>2026-05-08T07:28:50Z</time></trkpt>
<trkpt lat="50.730843" lon="4.559540"><time>2026-05-08T07:38:50Z</time></trkpt>
</trkseg></trk>
<trk>
<name>bwvbg20</name>
<cmt>d</cmt>
<desc>Bierges Chemin n°20 </desc>
<link href="https://chemins.be/bierges/chemin/20"/><trkseg>
<trkpt lat="50.730843" lon="4.559540"><time>2026-05-08T07:38:50Z</time></trkpt>
<trkpt lat="50.730692" lon="4.559172"><time>2026-05-08T07:48:50Z</time></trkpt>
</trkseg>
</trk>
<trk>
<name>bwvbg22</name>
<cmt>v</cmt>
<desc>Bierges Chemin n°22 </desc>
<link href="https://chemins.be/bierges/chemin/22"/><trkseg>
<trkpt lat="50.711362" lon="4.580542"><time>2026-05-08T07:08:50Z</time></trkpt>
<trkpt lat="50.711420" lon="4.579876"><time>2026-05-08T07:18:50Z</time></trkpt>
</trkseg>
</trk>
<trk>
<name>bwvbg24</name>
<cmt>v</cmt>
<desc>Bierges Sentier n°24 Sentier Rikir</desc>
<link href="https://chemins.be/bierges/sentier/24"/><trkseg>
<trkpt lat="50.706904" lon="4.588796"><time>2026-05-08T07:08:50Z</time></trkpt>
<trkpt lat="50.706914" lon="4.588499"><time>2026-05-08T07:18:50Z</time></trkpt>
<trkpt lat="50.707761" lon="4.587582"><time>2026-05-08T07:28:50Z</time></trkpt>
</trkseg>
</trk>
<trk>
<name>bwvbg25</name>
<cmt>v</cmt>
<desc>Bierges Chemin n°25 Sentier des Fontaines</desc>
<link href="https://chemins.be/bierges/chemin/25"/><trkseg>
<trkpt lat="50.708442" lon="4.588831"><time>2026-05-08T07:08:50Z</time></trkpt>
<trkpt lat="50.708460" lon="4.588718"><time>2026-05-08T07:18:50Z</time></trkpt>
<trkpt lat="50.708523" lon="4.588435"><time>2026-05-08T07:28:50Z</time></trkpt>
<trkpt lat="50.708578" lon="4.588209"><time>2026-05-08T07:38:50Z</time></trkpt>
<trkpt lat="50.708641" lon="4.588054"><time>2026-05-08T07:48:50Z</time></trkpt>
<trkpt lat="50.708740" lon="4.587913"><time>2026-05-08T07:58:50Z</time></trkpt>
<trkpt lat="50.708983" lon="4.587616"><time>2026-05-08T08:08:50Z</time></trkpt>
<trkpt lat="50.709145" lon="4.587504"><time>2026-05-08T08:18:50Z</time></trkpt>
<trkpt lat="50.709343" lon="4.587462"><time>2026-05-08T08:28:50Z</time></trkpt>
<trkpt lat="50.709577" lon="4.587364"><time>2026-05-08T08:38:50Z</time></trkpt>
<trkpt lat="50.709730" lon="4.587294"><time>2026-05-08T08:48:50Z</time></trkpt>
<trkpt lat="50.709766" lon="4.587195"><time>2026-05-08T08:58:50Z</time></trkpt>
<trkpt lat="50.709839" lon="4.586856"><time>2026-05-08T09:08:50Z</time></trkpt>
<trkpt lat="50.709920" lon="4.586460"><time>2026-05-08T09:18:50Z</time></trkpt>
<trkpt lat="50.709957" lon="4.586318"><time>2026-05-08T09:28:50Z</time></trkpt>
<trkpt lat="50.710020" lon="4.586191"><time>2026-05-08T09:38:50Z</time></trkpt>
<trkpt lat="50.710164" lon="4.585965"><time>2026-05-08T09:48:50Z</time></trkpt>
<trkpt lat="50.710281" lon="4.585796"><time>2026-05-08T09:58:50Z</time></trkpt>
</trkseg>
</trk>
<trk>
<name>bwvbg27</name>
<cmt>v</cmt>
<desc>Bierges Sentier n°27 Avenue des Aubépines</desc>
<link href="https://chemins.be/bierges/sentier/27"/><trkseg>
<trkpt lat="50.708725" lon="4.609461"><time>2026-05-08T07:08:50Z</time></trkpt>
<trkpt lat="50.708112" lon="4.610052"><time>2026-05-08T07:18:50Z</time></trkpt>
<trkpt lat="50.706915" lon="4.610556"><time>2026-05-08T07:28:50Z</time></trkpt>
<trkpt lat="50.706105" lon="4.611075"><time>2026-05-08T07:38:50Z</time></trkpt>
<trkpt lat="50.705249" lon="4.611963"><time>2026-05-08T07:48:50Z</time></trkpt>
</trkseg></trk>
<trk>
<name>bwvbg27</name>
<cmt>s</cmt>
<desc>Bierges Sentier n°27 Avenue des Aubépines</desc>
<link href="https://chemins.be/bierges/sentier/27"/><trkseg>
<trkpt lat="50.705249" lon="4.611963"><time>2026-05-08T07:48:50Z</time></trkpt>
<trkpt lat="50.703470" lon="4.611826"><time>2026-05-08T07:58:50Z</time></trkpt>
</trkseg></trk>
<trk>
<name>bwvbg27</name>
<cmt>v</cmt>
<desc>Bierges Sentier n°27 Avenue des Aubépines</desc>
<link href="https://chemins.be/bierges/sentier/27"/><trkseg>
<trkpt lat="50.703470" lon="4.611826"><time>2026-05-08T07:58:50Z</time></trkpt>
<trkpt lat="50.700984" lon="4.613866"><time>2026-05-08T08:08:50Z</time></trkpt>
<trkpt lat="50.700112" lon="4.613614"><time>2026-05-08T08:18:50Z</time></trkpt>
</trkseg></trk>
<trk>
<name>bwvbg27</name>
<cmt>b</cmt>
<desc>Bierges Sentier n°27 Avenue des Aubépines</desc>
<link href="https://chemins.be/bierges/sentier/27"/><trkseg>
<trkpt lat="50.700112" lon="4.613614"><time>2026-05-08T08:18:50Z</time></trkpt>
<trkpt lat="50.700069" lon="4.612962"><time>2026-05-08T08:28:50Z</time></trkpt>
<trkpt lat="50.699547" lon="4.611940"><time>2026-05-08T08:38:50Z</time></trkpt>
<trkpt lat="50.698340" lon="4.611477"><time>2026-05-08T08:48:50Z</time></trkpt>
</trkseg></trk>
<trk>
<name>bwvbg27</name>
<cmt>r</cmt>
<desc>Bierges Sentier n°27 Avenue des Aubépines</desc>
<link href="https://chemins.be/bierges/sentier/27"/><trkseg>
<trkpt lat="50.698340" lon="4.611477"><time>2026-05-08T08:48:50Z</time></trkpt>
<trkpt lat="50.697916" lon="4.611365"><time>2026-05-08T08:58:50Z</time></trkpt>
</trkseg>
</trk>
<trk>
<name>bwvbg28</name>
<cmt>v</cmt>
<desc>Bierges Sentier n°28 Rue du Souverain</desc>
<link href="https://chemins.be/bierges/sentier/28"/><trkseg>
<trkpt lat="50.706674" lon="4.612552"><time>2026-05-08T07:08:50Z</time></trkpt>
<trkpt lat="50.706284" lon="4.613357"><time>2026-05-08T07:18:50Z</time></trkpt>
</trkseg>
</trk>
<trk>
<name>bwvbg3</name>
<cmt>r</cmt>
<desc>Bierges Chemin n°3 Rue des Saussalles</desc>
<link href="https://chemins.be/bierges/chemin/3"/><trkseg>
<trkpt lat="50.711988" lon="4.597004"><time>2026-05-08T07:08:50Z</time></trkpt>
<trkpt lat="50.712108" lon="4.596579"><time>2026-05-08T07:18:50Z</time></trkpt>
<trkpt lat="50.712015" lon="4.594836"><time>2026-05-08T07:28:50Z</time></trkpt>
</trkseg></trk>
<trk>
<name>bwvbg3</name>
<cmt>b</cmt>
<desc>Bierges Chemin n°3 Rue des Saussalles</desc>
<link href="https://chemins.be/bierges/chemin/3"/><trkseg>
<trkpt lat="50.712015" lon="4.594836"><time>2026-05-08T07:28:50Z</time></trkpt>
<trkpt lat="50.711613" lon="4.593570"><time>2026-05-08T07:38:50Z</time></trkpt>
</trkseg></trk>
<trk>
<name>bwvbg3</name>
<cmt>q</cmt>
<desc>Bierges Chemin n°3 Rue des Saussalles</desc>
<link href="https://chemins.be/bierges/chemin/3"/><trkseg>
<trkpt lat="50.711613" lon="4.593570"><time>2026-05-08T07:38:50Z</time></trkpt>
<trkpt lat="50.711683" lon="4.592253"><time>2026-05-08T07:48:50Z</time></trkpt>
<trkpt lat="50.711493" lon="4.590595"><time>2026-05-08T07:58:50Z</time></trkpt>
</trkseg></trk>
<trk>
<name>bwvbg3</name>
<cmt>s</cmt>
<desc>Bierges Chemin n°3 Rue des Saussalles</desc>
<link href="https://chemins.be/bierges/chemin/3"/><trkseg>
<trkpt lat="50.711493" lon="4.590595"><time>2026-05-08T07:58:50Z</time></trkpt>
<trkpt lat="50.711432" lon="4.590179"><time>2026-05-08T08:08:50Z</time></trkpt>
</trkseg>
</trk>
<trk>
<name>bwvbg30</name>
<cmt>d</cmt>
<desc>Bierges Sentier n°30 Rue Fond des Chevaux / Chemin des Sapins / Chemin du Cygne</desc>
<link href="https://chemins.be/bierges/sentier/30"/><trkseg>
<trkpt lat="50.729693" lon="4.565360"><time>2026-05-08T07:08:50Z</time></trkpt>
<trkpt lat="50.728769" lon="4.562476"><time>2026-05-08T07:18:50Z</time></trkpt>
</trkseg></trk>
<trk>
<name>bwvbg30</name>
<cmt>s</cmt>
<desc>Bierges Sentier n°30 Rue Fond des Chevaux / Chemin des Sapins / Chemin du Cygne</desc>
<link href="https://chemins.be/bierges/sentier/30"/><trkseg>
<trkpt lat="50.728769" lon="4.562476"><time>2026-05-08T07:18:50Z</time></trkpt>
<trkpt lat="50.728487" lon="4.562553"><time>2026-05-08T07:28:50Z</time></trkpt>
<trkpt lat="50.728068" lon="4.561901"><time>2026-05-08T07:38:50Z</time></trkpt>
<trkpt lat="50.728128" lon="4.561609"><time>2026-05-08T07:48:50Z</time></trkpt>
<trkpt lat="50.727688" lon="4.560974"><time>2026-05-08T07:58:50Z</time></trkpt>
</trkseg></trk>
<trk>
<name>bwvbg30</name>
<cmt>r</cmt>
<desc>Bierges Sentier n°30 Rue Fond des Chevaux / Chemin des Sapins / Chemin du Cygne</desc>
<link href="https://chemins.be/bierges/sentier/30"/><trkseg>
<trkpt lat="50.727688" lon="4.560974"><time>2026-05-08T07:58:50Z</time></trkpt>
<trkpt lat="50.727581" lon="4.560732"><time>2026-05-08T08:08:50Z</time></trkpt>
<trkpt lat="50.727335" lon="4.559086"><time>2026-05-08T08:18:50Z</time></trkpt>
<trkpt lat="50.727494" lon="4.557768"><time>2026-05-08T08:28:50Z</time></trkpt>
<trkpt lat="50.727621" lon="4.557652"><time>2026-05-08T08:38:50Z</time></trkpt>
</trkseg></trk>
<trk>
<name>bwvbg30</name>
<cmt>v</cmt>
<desc>Bierges Sentier n°30 Rue Fond des Chevaux / Chemin des Sapins / Chemin du Cygne</desc>
<link href="https://chemins.be/bierges/sentier/30"/><trkseg>
<trkpt lat="50.727621" lon="4.557652"><time>2026-05-08T08:38:50Z</time></trkpt>
<trkpt lat="50.727537" lon="4.557340"><time>2026-05-08T08:48:50Z</time></trkpt>
<trkpt lat="50.727769" lon="4.556434"><time>2026-05-08T08:58:50Z</time></trkpt>
</trkseg></trk>
<trk>
<name>bwvbg30</name>
<cmt>b</cmt>
<desc>Bierges Sentier n°30 Rue Fond des Chevaux / Chemin des Sapins / Chemin du Cygne</desc>
<link href="https://chemins.be/bierges/sentier/30"/><trkseg>
<trkpt lat="50.727769" lon="4.556434"><time>2026-05-08T08:58:50Z</time></trkpt>
<trkpt lat="50.727667" lon="4.555226"><time>2026-05-08T09:08:50Z</time></trkpt>
<trkpt lat="50.727676" lon="4.554731"><time>2026-05-08T09:18:50Z</time></trkpt>
<trkpt lat="50.727569" lon="4.554362"><time>2026-05-08T09:28:50Z</time></trkpt>
</trkseg>
</trk>
<trk>
<name>bwvbg30bis</name>
<cmt>s</cmt>
<desc>Bierges Chemin n°30bis </desc>
<link href="https://chemins.be/bierges/chemin/30bis"/><trkseg>
<trkpt lat="50.726471" lon="4.558452"><time>2026-05-08T07:08:50Z</time></trkpt>
<trkpt lat="50.726899" lon="4.558945"><time>2026-05-08T07:18:50Z</time></trkpt>
<trkpt lat="50.727537" lon="4.560474"><time>2026-05-08T07:28:50Z</time></trkpt>
</trkseg>
</trk>
<trk>
<name>bwvbg31</name>
<cmt>s</cmt>
<desc>Bierges Sentier n°31 </desc>
<link href="https://chemins.be/bierges/sentier/31"/><trkseg>
<trkpt lat="50.730643" lon="4.558983"><time>2026-05-08T07:08:50Z</time></trkpt>
<trkpt lat="50.729747" lon="4.560313"><time>2026-05-08T07:18:50Z</time></trkpt>
<trkpt lat="50.728742" lon="4.562459"><time>2026-05-08T07:28:50Z</time></trkpt>
</trkseg></trk>
<trk>
<name>bwvbg31</name>
<cmt>q</cmt>
<desc>Bierges Sentier n°31 </desc>
<link href="https://chemins.be/bierges/sentier/31"/><trkseg>
<trkpt lat="50.728742" lon="4.562459"><time>2026-05-08T07:28:50Z</time></trkpt>
<trkpt lat="50.727825" lon="4.563221"><time>2026-05-08T07:38:50Z</time></trkpt>
<trkpt lat="50.727688" lon="4.564321"><time>2026-05-08T07:48:50Z</time></trkpt>
<trkpt lat="50.724493" lon="4.569686"><time>2026-05-08T07:58:50Z</time></trkpt>
</trkseg></trk>
<trk>
<name>bwvbg31</name>
<cmt>s</cmt>
<desc>Bierges Sentier n°31 </desc>
<link href="https://chemins.be/bierges/sentier/31"/><trkseg>
<trkpt lat="50.724493" lon="4.569686"><time>2026-05-08T07:58:50Z</time></trkpt>
<trkpt lat="50.721206" lon="4.576372"><time>2026-05-08T08:08:50Z</time></trkpt>
</trkseg>
</trk>
<trk>
<name>bwvbg32</name>
<cmt>s</cmt>
<desc>Bierges Sentier n°32 Rue du Bois</desc>
<link href="https://chemins.be/bierges/sentier/32"/><trkseg>
<trkpt lat="50.715313" lon="4.572311"><time>2026-05-08T07:08:50Z</time></trkpt>
<trkpt lat="50.714731" lon="4.574844"><time>2026-05-08T07:18:50Z</time></trkpt>
<trkpt lat="50.714498" lon="4.575861"><time>2026-05-08T07:28:50Z</time></trkpt>
<trkpt lat="50.713986" lon="4.577586"><time>2026-05-08T07:38:50Z</time></trkpt>
</trkseg></trk>
<trk>
<name>bwvbg32</name>
<cmt>v</cmt>
<desc>Bierges Sentier n°32 Rue du Bois</desc>
<link href="https://chemins.be/bierges/sentier/32"/><trkseg>
<trkpt lat="50.713986" lon="4.577586"><time>2026-05-08T07:38:50Z</time></trkpt>
<trkpt lat="50.713961" lon="4.579207"><time>2026-05-08T07:48:50Z</time></trkpt>
<trkpt lat="50.713693" lon="4.579341"><time>2026-05-08T07:58:50Z</time></trkpt>
<trkpt lat="50.713537" lon="4.579445"><time>2026-05-08T08:08:50Z</time></trkpt>
</trkseg></trk>
<trk>
<name>bwvbg32</name>
<cmt>r</cmt>
<desc>Bierges Sentier n°32 Rue du Bois</desc>
<link href="https://chemins.be/bierges/sentier/32"/><trkseg>
<trkpt lat="50.713537" lon="4.579445"><time>2026-05-08T08:08:50Z</time></trkpt>
<trkpt lat="50.713417" lon="4.579766"><time>2026-05-08T08:18:50Z</time></trkpt>
<trkpt lat="50.713597" lon="4.580674"><time>2026-05-08T08:28:50Z</time></trkpt>
<trkpt lat="50.713308" lon="4.581046"><time>2026-05-08T08:38:50Z</time></trkpt>
</trkseg>
</trk>
<trk>
<name>bwvbg34</name>
<cmt>r</cmt>
<desc>Bierges Sentier n°34 Rue de la Haie</desc>
<link href="https://chemins.be/bierges/sentier/34"/><trkseg>
<trkpt lat="50.709235" lon="4.579958"><time>2026-05-08T07:08:50Z</time></trkpt>
<trkpt lat="50.707926" lon="4.577975"><time>2026-05-08T07:18:50Z</time></trkpt>
<trkpt lat="50.707559" lon="4.577116"><time>2026-05-08T07:28:50Z</time></trkpt>
<trkpt lat="50.707075" lon="4.576639"><time>2026-05-08T07:38:50Z</time></trkpt>
<trkpt lat="50.706457" lon="4.575921"><time>2026-05-08T07:48:50Z</time></trkpt>
<trkpt lat="50.705566" lon="4.575409"><time>2026-05-08T07:58:50Z</time></trkpt>
<trkpt lat="50.705329" lon="4.575042"><time>2026-05-08T08:08:50Z</time></trkpt>
<trkpt lat="50.705053" lon="4.575078"><time>2026-05-08T08:18:50Z</time></trkpt>
</trkseg>
</trk>
<trk>
<name>bwvbg35</name>
<cmt>v</cmt>
<desc>Bierges Sentier n°35 Sentier Leroy</desc>
<link href="https://chemins.be/bierges/sentier/35"/><trkseg>
<trkpt lat="50.708487" lon="4.588832"><time>2026-05-08T07:08:50Z</time></trkpt>
<trkpt lat="50.708882" lon="4.588919"><time>2026-05-08T07:18:50Z</time></trkpt>
<trkpt lat="50.709169" lon="4.589330"><time>2026-05-08T07:28:50Z</time></trkpt>
<trkpt lat="50.709382" lon="4.589714"><time>2026-05-08T07:38:50Z</time></trkpt>
</trkseg></trk>
<trk>
<name>bwvbg35</name>
<cmt>r</cmt>
<desc>Bierges Sentier n°35 Sentier Leroy</desc>
<link href="https://chemins.be/bierges/sentier/35"/><trkseg>
<trkpt lat="50.709382" lon="4.589714"><time>2026-05-08T07:38:50Z</time></trkpt>
<trkpt lat="50.709533" lon="4.589708"><time>2026-05-08T07:48:50Z</time></trkpt>
<trkpt lat="50.709641" lon="4.590280"><time>2026-05-08T07:58:50Z</time></trkpt>
<trkpt lat="50.709997" lon="4.590671"><time>2026-05-08T08:08:50Z</time></trkpt>
</trkseg>
</trk>
<trk>
<name>bwvbg36</name>
<cmt>v</cmt>
<desc>Bierges Sentier n°36 Sentier Ravet</desc>
<link href="https://chemins.be/bierges/sentier/36"/><trkseg>
<trkpt lat="50.709397" lon="4.592163"><time>2026-05-08T07:08:50Z</time></trkpt>
<trkpt lat="50.708606" lon="4.592230"><time>2026-05-08T07:18:50Z</time></trkpt>
<trkpt lat="50.708327" lon="4.592257"><time>2026-05-08T07:28:50Z</time></trkpt>
</trkseg>
</trk>
<trk>
<name>bwvbg37</name>
<cmt>r</cmt>
<desc>Bierges Sentier n°37 Rue des Templiers</desc>
<link href="https://chemins.be/bierges/sentier/37"/><trkseg>
<trkpt lat="50.732551" lon="4.564453"><time>2026-05-08T07:08:50Z</time></trkpt>
<trkpt lat="50.733313" lon="4.565717"><time>2026-05-08T07:18:50Z</time></trkpt>
</trkseg></trk>
<trk>
<name>bwvbg37</name>
<cmt>s</cmt>
<desc>Bierges Sentier n°37 Rue des Templiers</desc>
<link href="https://chemins.be/bierges/sentier/37"/><trkseg>
<trkpt lat="50.733313" lon="4.565717"><time>2026-05-08T07:18:50Z</time></trkpt>
<trkpt lat="50.733065" lon="4.566123"><time>2026-05-08T07:28:50Z</time></trkpt>
<trkpt lat="50.732745" lon="4.566650"><time>2026-05-08T07:38:50Z</time></trkpt>
<trkpt lat="50.732419" lon="4.567852"><time>2026-05-08T07:48:50Z</time></trkpt>
<trkpt lat="50.732804" lon="4.568845"><time>2026-05-08T07:58:50Z</time></trkpt>
<trkpt lat="50.733440" lon="4.570236"><time>2026-05-08T08:08:50Z</time></trkpt>
<trkpt lat="50.733717" lon="4.571272"><time>2026-05-08T08:18:50Z</time></trkpt>
<trkpt lat="50.733258" lon="4.571624"><time>2026-05-08T08:28:50Z</time></trkpt>
<trkpt lat="50.733472" lon="4.572659"><time>2026-05-08T08:38:50Z</time></trkpt>
<trkpt lat="50.733369" lon="4.574641"><time>2026-05-08T08:48:50Z</time></trkpt>
</trkseg>
</trk>
<trk>
<name>bwvbg37bis</name>
<cmt>v</cmt>
<desc>Bierges Sentier n°37bis </desc>
<link href="https://chemins.be/bierges/sentier/37bis"/><trkseg>
<trkpt lat="50.733281" lon="4.562915"><time>2026-05-08T07:08:50Z</time></trkpt>
<trkpt lat="50.733393" lon="4.563505"><time>2026-05-08T07:18:50Z</time></trkpt>
</trkseg></trk>
<trk>
<name>bwvbg37bis</name>
<cmt>d</cmt>
<desc>Bierges Sentier n°37bis </desc>
<link href="https://chemins.be/bierges/sentier/37bis"/><trkseg>
<trkpt lat="50.733393" lon="4.563505"><time>2026-05-08T07:18:50Z</time></trkpt>
<trkpt lat="50.733588" lon="4.564420"><time>2026-05-08T07:28:50Z</time></trkpt>
<trkpt lat="50.733977" lon="4.565058"><time>2026-05-08T07:38:50Z</time></trkpt>
</trkseg>
</trk>
<trk>
<name>bwvbg38</name>
<cmt>r</cmt>
<desc>Bierges Sentier n°38 Rue de Genval / Chemin des Flamands / Rue de Rosières / Sentier des Hirondelles / Rue des Templiers / Rue des Etourneaux</desc>
<link href="https://chemins.be/bierges/sentier/38"/><trkseg>
<trkpt lat="50.732216" lon="4.558089"><time>2026-05-08T07:08:50Z</time></trkpt>
<trkpt lat="50.731135" lon="4.559625"><time>2026-05-08T07:18:50Z</time></trkpt>
</trkseg></trk>
<trk>
<name>bwvbg38</name>
<cmt>d</cmt>
<desc>Bierges Sentier n°38 Rue de Genval / Chemin des Flamands / Rue de Rosières / Sentier des Hirondelles / Rue des Templiers / Rue des Etourneaux</desc>
<link href="https://chemins.be/bierges/sentier/38"/><trkseg>
<trkpt lat="50.731135" lon="4.559625"><time>2026-05-08T07:18:50Z</time></trkpt>
<trkpt lat="50.730945" lon="4.559831"><time>2026-05-08T07:28:50Z</time></trkpt>
<trkpt lat="50.731032" lon="4.560158"><time>2026-05-08T07:38:50Z</time></trkpt>
<trkpt lat="50.730809" lon="4.562329"><time>2026-05-08T07:48:50Z</time></trkpt>
<trkpt lat="50.730509" lon="4.563027"><time>2026-05-08T07:58:50Z</time></trkpt>
</trkseg></trk>
<trk>
<name>bwvbg38</name>
<cmt>r</cmt>
<desc>Bierges Sentier n°38 Rue de Genval / Chemin des Flamands / Rue de Rosières / Sentier des Hirondelles / Rue des Templiers / Rue des Etourneaux</desc>
<link href="https://chemins.be/bierges/sentier/38"/><trkseg>
<trkpt lat="50.730509" lon="4.563027"><time>2026-05-08T07:58:50Z</time></trkpt>
<trkpt lat="50.730160" lon="4.564133"><time>2026-05-08T08:08:50Z</time></trkpt>
</trkseg></trk>
<trk>
<name>bwvbg38</name>
<cmt>v</cmt>
<desc>Bierges Sentier n°38 Rue de Genval / Chemin des Flamands / Rue de Rosières / Sentier des Hirondelles / Rue des Templiers / Rue des Etourneaux</desc>
<link href="https://chemins.be/bierges/sentier/38"/><trkseg>
<trkpt lat="50.730160" lon="4.564133"><time>2026-05-08T08:08:50Z</time></trkpt>
<trkpt lat="50.730192" lon="4.564360"><time>2026-05-08T08:18:50Z</time></trkpt>
<trkpt lat="50.729787" lon="4.565210"><time>2026-05-08T08:28:50Z</time></trkpt>
</trkseg></trk>
<trk>
<name>bwvbg38</name>
<cmt>r</cmt>
<desc>Bierges Sentier n°38 Rue de Genval / Chemin des Flamands / Rue de Rosières / Sentier des Hirondelles / Rue des Templiers / Rue des Etourneaux</desc>
<link href="https://chemins.be/bierges/sentier/38"/><trkseg>
<trkpt lat="50.729787" lon="4.565210"><time>2026-05-08T08:28:50Z</time></trkpt>
<trkpt lat="50.729521" lon="4.565767"><time>2026-05-08T08:38:50Z</time></trkpt>
</trkseg></trk>
<trk>
<name>bwvbg38</name>
<cmt>v</cmt>
<desc>Bierges Sentier n°38 Rue de Genval / Chemin des Flamands / Rue de Rosières / Sentier des Hirondelles / Rue des Templiers / Rue des Etourneaux</desc>
<link href="https://chemins.be/bierges/sentier/38"/><trkseg>
<trkpt lat="50.729521" lon="4.565767"><time>2026-05-08T08:38:50Z</time></trkpt>
<trkpt lat="50.729744" lon="4.566296"><time>2026-05-08T08:48:50Z</time></trkpt>
<trkpt lat="50.730155" lon="4.567290"><time>2026-05-08T08:58:50Z</time></trkpt>
</trkseg></trk>
<trk>
<name>bwvbg38</name>
<cmt>r</cmt>
<desc>Bierges Sentier n°38 Rue de Genval / Chemin des Flamands / Rue de Rosières / Sentier des Hirondelles / Rue des Templiers / Rue des Etourneaux</desc>
<link href="https://chemins.be/bierges/sentier/38"/><trkseg>
<trkpt lat="50.730155" lon="4.567290"><time>2026-05-08T08:58:50Z</time></trkpt>
<trkpt lat="50.729182" lon="4.568405"><time>2026-05-08T09:08:50Z</time></trkpt>
</trkseg></trk>
<trk>
<name>bwvbg38</name>
<cmt>v</cmt>
<desc>Bierges Sentier n°38 Rue de Genval / Chemin des Flamands / Rue de Rosières / Sentier des Hirondelles / Rue des Templiers / Rue des Etourneaux</desc>
<link href="https://chemins.be/bierges/sentier/38"/><trkseg>
<trkpt lat="50.729182" lon="4.568405"><time>2026-05-08T09:08:50Z</time></trkpt>
<trkpt lat="50.728271" lon="4.570172"><time>2026-05-08T09:18:50Z</time></trkpt>
<trkpt lat="50.727163" lon="4.571470"><time>2026-05-08T09:28:50Z</time></trkpt>
<trkpt lat="50.726235" lon="4.572755"><time>2026-05-08T09:38:50Z</time></trkpt>
</trkseg></trk>
<trk>
<name>bwvbg38</name>
<cmt>s</cmt>
<desc>Bierges Sentier n°38 Rue de Genval / Chemin des Flamands / Rue de Rosières / Sentier des Hirondelles / Rue des Templiers / Rue des Etourneaux</desc>
<link href="https://chemins.be/bierges/sentier/38"/><trkseg>
<trkpt lat="50.726235" lon="4.572755"><time>2026-05-08T09:38:50Z</time></trkpt>
<trkpt lat="50.725547" lon="4.575216"><time>2026-05-08T09:48:50Z</time></trkpt>
</trkseg>
</trk>
<trk>
<name>bwvbg39</name>
<cmt>s</cmt>
<desc>Bierges Sentier n°39 Chemin des Sapins</desc>
<link href="https://chemins.be/bierges/sentier/39"/><trkseg>
<trkpt lat="50.728005" lon="4.557367"><time>2026-05-08T07:08:50Z</time></trkpt>
<trkpt lat="50.727541" lon="4.557384"><time>2026-05-08T07:18:50Z</time></trkpt>
</trkseg></trk>
<trk>
<name>bwvbg39</name>
<cmt>v</cmt>
<desc>Bierges Sentier n°39 Chemin des Sapins</desc>
<link href="https://chemins.be/bierges/sentier/39"/><trkseg>
<trkpt lat="50.727541" lon="4.557384"><time>2026-05-08T07:18:50Z</time></trkpt>
<trkpt lat="50.727487" lon="4.557247"><time>2026-05-08T07:28:50Z</time></trkpt>
<trkpt lat="50.726859" lon="4.557502"><time>2026-05-08T07:38:50Z</time></trkpt>
<trkpt lat="50.726018" lon="4.557472"><time>2026-05-08T07:48:50Z</time></trkpt>
<trkpt lat="50.724749" lon="4.558005"><time>2026-05-08T07:58:50Z</time></trkpt>
<trkpt lat="50.723283" lon="4.558367"><time>2026-05-08T08:08:50Z</time></trkpt>
<trkpt lat="50.721665" lon="4.558417"><time>2026-05-08T08:18:50Z</time></trkpt>
<trkpt lat="50.721045" lon="4.558689"><time>2026-05-08T08:28:50Z</time></trkpt>
<trkpt lat="50.720243" lon="4.559275"><time>2026-05-08T08:38:50Z</time></trkpt>
<trkpt lat="50.719145" lon="4.560376"><time>2026-05-08T08:48:50Z</time></trkpt>
</trkseg>
</trk>
<trk>
<name>bwvbg4</name>
<cmt>v</cmt>
<desc>Bierges Chemin n°4 </desc>
<link href="https://chemins.be/bierges/chemin/4"/><trkseg>
<trkpt lat="50.705985" lon="4.585032"><time>2026-05-08T07:08:50Z</time></trkpt>
<trkpt lat="50.705809" lon="4.582973"><time>2026-05-08T07:18:50Z</time></trkpt>
<trkpt lat="50.705246" lon="4.580324"><time>2026-05-08T07:28:50Z</time></trkpt>
<trkpt lat="50.705301" lon="4.579420"><time>2026-05-08T07:38:50Z</time></trkpt>
<trkpt lat="50.705347" lon="4.578896"><time>2026-05-08T07:48:50Z</time></trkpt>
<trkpt lat="50.705007" lon="4.575140"><time>2026-05-08T07:58:50Z</time></trkpt>
</trkseg>
</trk>
<trk>
<name>bwvbg40</name>
<cmt>v</cmt>
<desc>Bierges Sentier n°40 Rue des Commones</desc>
<link href="https://chemins.be/bierges/sentier/40"/><trkseg>
<trkpt lat="50.711151" lon="4.577362"><time>2026-05-08T07:08:50Z</time></trkpt>
<trkpt lat="50.711133" lon="4.577206"><time>2026-05-08T07:18:50Z</time></trkpt>
<trkpt lat="50.710901" lon="4.576412"><time>2026-05-08T07:28:50Z</time></trkpt>
<trkpt lat="50.710417" lon="4.575263"><time>2026-05-08T07:38:50Z</time></trkpt>
<trkpt lat="50.710194" lon="4.574497"><time>2026-05-08T07:48:50Z</time></trkpt>
<trkpt lat="50.710060" lon="4.573775"><time>2026-05-08T07:58:50Z</time></trkpt>
<trkpt lat="50.710017" lon="4.573081"><time>2026-05-08T08:08:50Z</time></trkpt>
<trkpt lat="50.709928" lon="4.572514"><time>2026-05-08T08:18:50Z</time></trkpt>
<trkpt lat="50.709928" lon="4.572188"><time>2026-05-08T08:28:50Z</time></trkpt>
<trkpt lat="50.709965" lon="4.571920"><time>2026-05-08T08:38:50Z</time></trkpt>
<trkpt lat="50.710055" lon="4.571623"><time>2026-05-08T08:48:50Z</time></trkpt>
</trkseg></trk>
<trk>
<name>bwvbg40</name>
<cmt>b</cmt>
<desc>Bierges Sentier n°40 Rue des Commones</desc>
<link href="https://chemins.be/bierges/sentier/40"/><trkseg>
<trkpt lat="50.710055" lon="4.571623"><time>2026-05-08T08:48:50Z</time></trkpt>
<trkpt lat="50.710051" lon="4.569017"><time>2026-05-08T08:58:50Z</time></trkpt>
</trkseg></trk>
<trk>
<name>bwvbg40</name>
<cmt>d</cmt>
<desc>Bierges Sentier n°40 Rue des Commones</desc>
<link href="https://chemins.be/bierges/sentier/40"/><trkseg>
<trkpt lat="50.710051" lon="4.569017"><time>2026-05-08T08:58:50Z</time></trkpt>
<trkpt lat="50.709640" lon="4.567204"><time>2026-05-08T09:08:50Z</time></trkpt>
</trkseg>
</trk>
<trk>
<name>bwvbg41</name>
<cmt>r</cmt>
<desc>Bierges Sentier n°41 rue de l'usine</desc>
<link href="https://chemins.be/bierges/sentier/41"/><trkseg>
<trkpt lat="50.711263" lon="4.588865"><time>2026-05-08T07:08:50Z</time></trkpt>
<trkpt lat="50.711646" lon="4.590205"><time>2026-05-08T07:18:50Z</time></trkpt>
<trkpt lat="50.711873" lon="4.592968"><time>2026-05-08T07:28:50Z</time></trkpt>
<trkpt lat="50.712585" lon="4.594763"><time>2026-05-08T07:38:50Z</time></trkpt>
<trkpt lat="50.712317" lon="4.595751"><time>2026-05-08T07:48:50Z</time></trkpt>
<trkpt lat="50.712548" lon="4.597747"><time>2026-05-08T07:58:50Z</time></trkpt>
</trkseg></trk>
<trk>
<name>bwvbg41</name>
<cmt>s</cmt>
<desc>Bierges Sentier n°41 rue de l'usine</desc>
<link href="https://chemins.be/bierges/sentier/41"/><trkseg>
<trkpt lat="50.712548" lon="4.597747"><time>2026-05-08T07:58:50Z</time></trkpt>
<trkpt lat="50.713046" lon="4.599041"><time>2026-05-08T08:08:50Z</time></trkpt>
</trkseg></trk>
<trk>
<name>bwvbg41</name>
<cmt>r</cmt>
<desc>Bierges Sentier n°41 rue de l'usine</desc>
<link href="https://chemins.be/bierges/sentier/41"/><trkseg>
<trkpt lat="50.713046" lon="4.599041"><time>2026-05-08T08:08:50Z</time></trkpt>
<trkpt lat="50.713190" lon="4.600134"><time>2026-05-08T08:18:50Z</time></trkpt>
<trkpt lat="50.713289" lon="4.600966"><time>2026-05-08T08:28:50Z</time></trkpt>
</trkseg>
</trk>
<trk>
<name>bwvbg42</name>
<cmt>d</cmt>
<desc>Bierges Sentier n°42 Rue du Bois Wilmet</desc>
<link href="https://chemins.be/bierges/sentier/42"/><trkseg>
<trkpt lat="50.710767" lon="4.564884"><time>2026-05-08T07:08:50Z</time></trkpt>
<trkpt lat="50.708985" lon="4.566418"><time>2026-05-08T07:18:50Z</time></trkpt>
</trkseg></trk>
<trk>
<name>bwvbg42</name>
<cmt>v</cmt>
<desc>Bierges Sentier n°42 Rue du Bois Wilmet</desc>
<link href="https://chemins.be/bierges/sentier/42"/><trkseg>
<trkpt lat="50.708985" lon="4.566418"><time>2026-05-08T07:18:50Z</time></trkpt>
<trkpt lat="50.708342" lon="4.566972"><time>2026-05-08T07:28:50Z</time></trkpt>
</trkseg></trk>
<trk>
<name>bwvbg42</name>
<cmt>r</cmt>
<desc>Bierges Sentier n°42 Rue du Bois Wilmet</desc>
<link href="https://chemins.be/bierges/sentier/42"/><trkseg>
<trkpt lat="50.708342" lon="4.566972"><time>2026-05-08T07:28:50Z</time></trkpt>
<trkpt lat="50.708065" lon="4.568010"><time>2026-05-08T07:38:50Z</time></trkpt>
</trkseg>
</trk>
<trk>
<name>bwvbg43</name>
<cmt>v</cmt>
<desc>Bierges Sentier n°43 Sentier des Fontaines</desc>
<link href="https://chemins.be/bierges/sentier/43"/><trkseg>
<trkpt lat="50.711496" lon="4.585023"><time>2026-05-08T07:08:50Z</time></trkpt>
<trkpt lat="50.710542" lon="4.585613"><time>2026-05-08T07:18:50Z</time></trkpt>
</trkseg>
</trk>
<trk>
<name>bwvbg44</name>
<cmt>s</cmt>
<desc>Bierges Sentier n°44 </desc>
<link href="https://chemins.be/bierges/sentier/44"/><trkseg>
<trkpt lat="50.700420" lon="4.590300"><time>2026-05-08T07:08:50Z</time></trkpt>
<trkpt lat="50.703944" lon="4.595878"><time>2026-05-08T07:18:50Z</time></trkpt>
<trkpt lat="50.704201" lon="4.596285"><time>2026-05-08T07:28:50Z</time></trkpt>
<trkpt lat="50.704767" lon="4.596714"><time>2026-05-08T07:38:50Z</time></trkpt>
<trkpt lat="50.706289" lon="4.599475"><time>2026-05-08T07:48:50Z</time></trkpt>
</trkseg>
</trk>
<trk>
<name>bwvbg44bis</name>
<cmt>r</cmt>
<desc>Bierges Sentier n°44bis </desc>
<link href="https://chemins.be/bierges/sentier/44bis"/><trkseg>
<trkpt lat="50.703449" lon="4.593946"><time>2026-05-08T07:08:50Z</time></trkpt>
<trkpt lat="50.703922" lon="4.594847"><time>2026-05-08T07:18:50Z</time></trkpt>
<trkpt lat="50.703857" lon="4.595911"><time>2026-05-08T07:28:50Z</time></trkpt>
<trkpt lat="50.704232" lon="4.596529"><time>2026-05-08T07:38:50Z</time></trkpt>
<trkpt lat="50.704971" lon="4.596590"><time>2026-05-08T07:48:50Z</time></trkpt>
<trkpt lat="50.705227" lon="4.597465"><time>2026-05-08T07:58:50Z</time></trkpt>
<trkpt lat="50.705835" lon="4.598778"><time>2026-05-08T08:08:50Z</time></trkpt>
<trkpt lat="50.706140" lon="4.599534"><time>2026-05-08T08:18:50Z</time></trkpt>
</trkseg>
</trk>
<trk>
<name>bwvbg45</name>
<cmt>q</cmt>
<desc>Bierges Sentier n°45 Parc Industriel Sud / Rue de la Dyle / Rue du Manège</desc>
<link href="https://chemins.be/bierges/sentier/45"/><trkseg>
<trkpt lat="50.700085" lon="4.587460"><time>2026-05-08T07:08:50Z</time></trkpt>
<trkpt lat="50.701314" lon="4.589786"><time>2026-05-08T07:18:50Z</time></trkpt>
</trkseg></trk>
<trk>
<name>bwvbg45</name>
<cmt>s</cmt>
<desc>Bierges Sentier n°45 Parc Industriel Sud / Rue de la Dyle / Rue du Manège</desc>
<link href="https://chemins.be/bierges/sentier/45"/><trkseg>
<trkpt lat="50.701314" lon="4.589786"><time>2026-05-08T07:18:50Z</time></trkpt>
<trkpt lat="50.704831" lon="4.594009"><time>2026-05-08T07:28:50Z</time></trkpt>
<trkpt lat="50.705983" lon="4.597305"><time>2026-05-08T07:38:50Z</time></trkpt>
</trkseg></trk>
<trk>
<name>bwvbg45</name>
<cmt>r</cmt>
<desc>Bierges Sentier n°45 Parc Industriel Sud / Rue de la Dyle / Rue du Manège</desc>
<link href="https://chemins.be/bierges/sentier/45"/><trkseg>
<trkpt lat="50.705983" lon="4.597305"><time>2026-05-08T07:38:50Z</time></trkpt>
<trkpt lat="50.706744" lon="4.598919"><time>2026-05-08T07:48:50Z</time></trkpt>
<trkpt lat="50.708861" lon="4.602734"><time>2026-05-08T07:58:50Z</time></trkpt>
</trkseg></trk>
<trk>
<name>bwvbg45</name>
<cmt>s</cmt>
<desc>Bierges Sentier n°45 Parc Industriel Sud / Rue de la Dyle / Rue du Manège</desc>
<link href="https://chemins.be/bierges/sentier/45"/><trkseg>
<trkpt lat="50.708861" lon="4.602734"><time>2026-05-08T07:58:50Z</time></trkpt>
<trkpt lat="50.710054" lon="4.603150"><time>2026-05-08T08:08:50Z</time></trkpt>
<trkpt lat="50.710587" lon="4.604112"><time>2026-05-08T08:18:50Z</time></trkpt>
<trkpt lat="50.711560" lon="4.606274"><time>2026-05-08T08:28:50Z</time></trkpt>
<trkpt lat="50.711891" lon="4.606901"><time>2026-05-08T08:38:50Z</time></trkpt>
</trkseg>
</trk>
<trk>
<name>bwvbg46</name>
<cmt>b</cmt>
<desc>Bierges Sentier n°46 </desc>
<link href="https://chemins.be/bierges/sentier/46"/><trkseg>
<trkpt lat="50.722248" lon="4.559629"><time>2026-05-08T07:08:50Z</time></trkpt>
<trkpt lat="50.721944" lon="4.558348"><time>2026-05-08T07:18:50Z</time></trkpt>
</trkseg>
</trk>
<trk>
<name>bwvbg47</name>
<cmt>s</cmt>
<desc>Bierges Sentier n°47 Rue des 4 Chemins</desc>
<link href="https://chemins.be/bierges/sentier/47"/><trkseg>
<trkpt lat="50.708803" lon="4.609447"><time>2026-05-08T07:08:50Z</time></trkpt>
<trkpt lat="50.709406" lon="4.609559"><time>2026-05-08T07:18:50Z</time></trkpt>
</trkseg></trk>
<trk>
<name>bwvbg47</name>
<cmt>v</cmt>
<desc>Bierges Sentier n°47 Rue des 4 Chemins</desc>
<link href="https://chemins.be/bierges/sentier/47"/><trkseg>
<trkpt lat="50.709406" lon="4.609559"><time>2026-05-08T07:18:50Z</time></trkpt>
<trkpt lat="50.709950" lon="4.609782"><time>2026-05-08T07:28:50Z</time></trkpt>
</trkseg>
</trk>
<trk>
<name>bwvbg48</name>
<cmt>v</cmt>
<desc>Bierges Sentier n°48 Chemin Marcel Ginion / Sentier du Bosquet</desc>
<link href="https://chemins.be/bierges/sentier/48"/><trkseg>
<trkpt lat="50.710129" lon="4.590496"><time>2026-05-08T07:08:50Z</time></trkpt>
<trkpt lat="50.710433" lon="4.591120"><time>2026-05-08T07:18:50Z</time></trkpt>
<trkpt lat="50.710406" lon="4.591248"><time>2026-05-08T07:28:50Z</time></trkpt>
<trkpt lat="50.710288" lon="4.591955"><time>2026-05-08T07:38:50Z</time></trkpt>
<trkpt lat="50.710377" lon="4.592324"><time>2026-05-08T07:48:50Z</time></trkpt>
<trkpt lat="50.710421" lon="4.592564"><time>2026-05-08T07:58:50Z</time></trkpt>
<trkpt lat="50.710439" lon="4.592664"><time>2026-05-08T08:08:50Z</time></trkpt>
<trkpt lat="50.710448" lon="4.592819"><time>2026-05-08T08:18:50Z</time></trkpt>
<trkpt lat="50.710429" lon="4.593258"><time>2026-05-08T08:28:50Z</time></trkpt>
<trkpt lat="50.710438" lon="4.593485"><time>2026-05-08T08:38:50Z</time></trkpt>
<trkpt lat="50.710473" lon="4.593726"><time>2026-05-08T08:48:50Z</time></trkpt>
<trkpt lat="50.710562" lon="4.594165"><time>2026-05-08T08:58:50Z</time></trkpt>
<trkpt lat="50.710633" lon="4.594420"><time>2026-05-08T09:08:50Z</time></trkpt>
<trkpt lat="50.710714" lon="4.594746"><time>2026-05-08T09:18:50Z</time></trkpt>
<trkpt lat="50.710893" lon="4.595200"><time>2026-05-08T09:28:50Z</time></trkpt>
<trkpt lat="50.710910" lon="4.595342"><time>2026-05-08T09:38:50Z</time></trkpt>
<trkpt lat="50.710945" lon="4.596206"><time>2026-05-08T09:48:50Z</time></trkpt>
<trkpt lat="50.710683" lon="4.596488"><time>2026-05-08T09:58:50Z</time></trkpt>
<trkpt lat="50.710799" lon="4.596998"><time>2026-05-08T10:08:50Z</time></trkpt>
<trkpt lat="50.710367" lon="4.597477"><time>2026-05-08T10:18:50Z</time></trkpt>
</trkseg>
</trk>
<trk>
<name>bwvbg49</name>
<cmt>q</cmt>
<desc>Bierges Sentier n°49 </desc>
<link href="https://chemins.be/bierges/sentier/49"/><trkseg>
<trkpt lat="50.708397" lon="4.594276"><time>2026-05-08T07:08:50Z</time></trkpt>
<trkpt lat="50.707908" lon="4.595288"><time>2026-05-08T07:18:50Z</time></trkpt>
</trkseg></trk>
<trk>
<name>bwvbg49</name>
<cmt>s</cmt>
<desc>Bierges Sentier n°49 </desc>
<link href="https://chemins.be/bierges/sentier/49"/><trkseg>
<trkpt lat="50.707908" lon="4.595288"><time>2026-05-08T07:18:50Z</time></trkpt>
<trkpt lat="50.707946" lon="4.596408"><time>2026-05-08T07:28:50Z</time></trkpt>
</trkseg>
</trk>
<trk>
<name>bwvbg50</name>
<cmt>v</cmt>
<desc>Bierges Sentier n°50 Sentier Laurent Facq</desc>
<link href="https://chemins.be/bierges/sentier/50"/><trkseg>
<trkpt lat="50.713985" lon="4.580787"><time>2026-05-08T07:08:50Z</time></trkpt>
<trkpt lat="50.714630" lon="4.582375"><time>2026-05-08T07:18:50Z</time></trkpt>
</trkseg>
</trk>
<trk>
<name>bwvbg51</name>
<cmt>q</cmt>
<desc>Bierges Sentier n°51 </desc>
<link href="https://chemins.be/bierges/sentier/51"/><trkseg>
<trkpt lat="50.706017" lon="4.613897"><time>2026-05-08T07:08:50Z</time></trkpt>
<trkpt lat="50.704891" lon="4.613834"><time>2026-05-08T07:18:50Z</time></trkpt>
<trkpt lat="50.703953" lon="4.613555"><time>2026-05-08T07:28:50Z</time></trkpt>
<trkpt lat="50.702907" lon="4.614292"><time>2026-05-08T07:38:50Z</time></trkpt>
<trkpt lat="50.702608" lon="4.614219"><time>2026-05-08T07:48:50Z</time></trkpt>
</trkseg></trk>
<trk>
<name>bwvbg51</name>
<cmt>s</cmt>
<desc>Bierges Sentier n°51 </desc>
<link href="https://chemins.be/bierges/sentier/51"/><trkseg>
<trkpt lat="50.702608" lon="4.614219"><time>2026-05-08T07:48:50Z</time></trkpt>
<trkpt lat="50.701005" lon="4.613829"><time>2026-05-08T07:58:50Z</time></trkpt>
</trkseg></trk>
<trk>
<name>bwvbg51</name>
<cmt>v</cmt>
<desc>Bierges Sentier n°51 </desc>
<link href="https://chemins.be/bierges/sentier/51"/><trkseg>
<trkpt lat="50.701005" lon="4.613829"><time>2026-05-08T07:58:50Z</time></trkpt>
<trkpt lat="50.700113" lon="4.614138"><time>2026-05-08T08:08:50Z</time></trkpt>
</trkseg></trk>
<trk>
<name>bwvbg51</name>
<cmt>s</cmt>
<desc>Bierges Sentier n°51 </desc>
<link href="https://chemins.be/bierges/sentier/51"/><trkseg>
<trkpt lat="50.700113" lon="4.614138"><time>2026-05-08T08:08:50Z</time></trkpt>
<trkpt lat="50.698003" lon="4.614593"><time>2026-05-08T08:18:50Z</time></trkpt>
</trkseg>
</trk>
<trk>
<name>bwvbg52</name>
<cmt>v</cmt>
<desc>Bierges Sentier n°52 Sentier Simonart</desc>
<link href="https://chemins.be/bierges/sentier/52"/><trkseg>
<trkpt lat="50.713600" lon="4.603539"><time>2026-05-08T07:08:50Z</time></trkpt>
<trkpt lat="50.713699" lon="4.603440"><time>2026-05-08T07:18:50Z</time></trkpt>
<trkpt lat="50.714078" lon="4.602904"><time>2026-05-08T07:28:50Z</time></trkpt>
<trkpt lat="50.714410" lon="4.603274"><time>2026-05-08T07:38:50Z</time></trkpt>
</trkseg>
</trk>
<trk>
<name>bwvbg53</name>
<cmt>v</cmt>
<desc>Bierges Sentier n°53 Sentier Laurent</desc>
<link href="https://chemins.be/bierges/sentier/53"/><trkseg>
<trkpt lat="50.705951" lon="4.589230"><time>2026-05-08T07:08:50Z</time></trkpt>
<trkpt lat="50.706608" lon="4.588582"><time>2026-05-08T07:18:50Z</time></trkpt>
</trkseg>
</trk>
<trk>
<name>bwvbg55</name>
<cmt>v</cmt>
<desc>Bierges Sentier n°55 Sentier des Perdrix / Rue du Blanc Try</desc>
<link href="https://chemins.be/bierges/sentier/55"/><trkseg>
<trkpt lat="50.714489" lon="4.570736"><time>2026-05-08T07:08:50Z</time></trkpt>
<trkpt lat="50.713596" lon="4.572318"><time>2026-05-08T07:18:50Z</time></trkpt>
<trkpt lat="50.713056" lon="4.572471"><time>2026-05-08T07:28:50Z</time></trkpt>
<trkpt lat="50.712920" lon="4.573079"><time>2026-05-08T07:38:50Z</time></trkpt>
<trkpt lat="50.713000" lon="4.574014"><time>2026-05-08T07:48:50Z</time></trkpt>
<trkpt lat="50.712909" lon="4.574608"><time>2026-05-08T07:58:50Z</time></trkpt>
<trkpt lat="50.712464" lon="4.575564"><time>2026-05-08T08:08:50Z</time></trkpt>
</trkseg></trk>
<trk>
<name>bwvbg55</name>
<cmt>r</cmt>
<desc>Bierges Sentier n°55 Sentier des Perdrix / Rue du Blanc Try</desc>
<link href="https://chemins.be/bierges/sentier/55"/><trkseg>
<trkpt lat="50.712464" lon="4.575564"><time>2026-05-08T08:08:50Z</time></trkpt>
<trkpt lat="50.711785" lon="4.576065"><time>2026-05-08T08:18:50Z</time></trkpt>
<trkpt lat="50.711155" lon="4.577395"><time>2026-05-08T08:28:50Z</time></trkpt>
</trkseg>
</trk>
<trk>
<name>bwvbg56</name>
<cmt>v</cmt>
<desc>Bierges Sentier n°56 Sentier du Tennis / Rue du Blanc Try</desc>
<link href="https://chemins.be/bierges/sentier/56"/><trkseg>
<trkpt lat="50.717186" lon="4.575817"><time>2026-05-08T07:08:50Z</time></trkpt>
<trkpt lat="50.716110" lon="4.576195"><time>2026-05-08T07:18:50Z</time></trkpt>
<trkpt lat="50.715719" lon="4.576292"><time>2026-05-08T07:28:50Z</time></trkpt>
<trkpt lat="50.714962" lon="4.576467"><time>2026-05-08T07:38:50Z</time></trkpt>
</trkseg></trk>
<trk>
<name>bwvbg56</name>
<cmt>r</cmt>
<desc>Bierges Sentier n°56 Sentier du Tennis / Rue du Blanc Try</desc>
<link href="https://chemins.be/bierges/sentier/56"/><trkseg>
<trkpt lat="50.714962" lon="4.576467"><time>2026-05-08T07:38:50Z</time></trkpt>
<trkpt lat="50.715153" lon="4.575709"><time>2026-05-08T07:48:50Z</time></trkpt>
</trkseg></trk>
<trk>
<name>bwvbg56</name>
<cmt>s</cmt>
<desc>Bierges Sentier n°56 Sentier du Tennis / Rue du Blanc Try</desc>
<link href="https://chemins.be/bierges/sentier/56"/><trkseg>
<trkpt lat="50.715153" lon="4.575709"><time>2026-05-08T07:48:50Z</time></trkpt>
<trkpt lat="50.712408" lon="4.575623"><time>2026-05-08T07:58:50Z</time></trkpt>
</trkseg>
</trk>
<trk>
<name>bwvbg57</name>
<cmt>v</cmt>
<desc>Bierges Sentier n°57 </desc>
<link href="https://chemins.be/bierges/sentier/57"/><trkseg>
<trkpt lat="50.722840" lon="4.560745"><time>2026-05-08T07:08:50Z</time></trkpt>
<trkpt lat="50.722183" lon="4.559664"><time>2026-05-08T07:18:50Z</time></trkpt>
<trkpt lat="50.721762" lon="4.559263"><time>2026-05-08T07:28:50Z</time></trkpt>
</trkseg></trk>
<trk>
<name>bwvbg57</name>
<cmt>q</cmt>
<desc>Bierges Sentier n°57 </desc>
<link href="https://chemins.be/bierges/sentier/57"/><trkseg>
<trkpt lat="50.721762" lon="4.559263"><time>2026-05-08T07:28:50Z</time></trkpt>
<trkpt lat="50.720440" lon="4.560225"><time>2026-05-08T07:38:50Z</time></trkpt>
<trkpt lat="50.719127" lon="4.560460"><time>2026-05-08T07:48:50Z</time></trkpt>
</trkseg></trk>
<trk>
<name>bwvbg57</name>
<cmt>v</cmt>
<desc>Bierges Sentier n°57 </desc>
<link href="https://chemins.be/bierges/sentier/57"/><trkseg>
<trkpt lat="50.719127" lon="4.560460"><time>2026-05-08T07:48:50Z</time></trkpt>
<trkpt lat="50.718463" lon="4.559566"><time>2026-05-08T07:58:50Z</time></trkpt>
<trkpt lat="50.717493" lon="4.558698"><time>2026-05-08T08:08:50Z</time></trkpt>
</trkseg>
</trk>
<trk>
<name>bwvbg58</name>
<cmt>v</cmt>
<desc>Bierges Chemin n°58 </desc>
<link href="https://chemins.be/bierges/chemin/58"/><trkseg>
<trkpt lat="50.731716" lon="4.560317"><time>2026-05-08T07:08:50Z</time></trkpt>
<trkpt lat="50.731689" lon="4.559798"><time>2026-05-08T07:18:50Z</time></trkpt>
<trkpt lat="50.731710" lon="4.559597"><time>2026-05-08T07:28:50Z</time></trkpt>
<trkpt lat="50.731469" lon="4.559099"><time>2026-05-08T07:38:50Z</time></trkpt>
</trkseg>
</trk>
<trk>
<name>bwvbg59</name>
<cmt>v</cmt>
<desc>Bierges Sentier n°59 Rue des Templiers</desc>
<link href="https://chemins.be/bierges/sentier/59"/><trkseg>
<trkpt lat="50.733304" lon="4.565646"><time>2026-05-08T07:08:50Z</time></trkpt>
<trkpt lat="50.733961" lon="4.565125"><time>2026-05-08T07:18:50Z</time></trkpt>
</trkseg>
</trk>
<trk>
<name>bwvbg6</name>
<cmt>v</cmt>
<desc>Bierges Chemin n°6 Rue aux Loups / Rue de la Carrière</desc>
<link href="https://chemins.be/bierges/chemin/6"/><trkseg>
<trkpt lat="50.706154" lon="4.599711"><time>2026-05-08T07:08:50Z</time></trkpt>
<trkpt lat="50.706633" lon="4.600550"><time>2026-05-08T07:18:50Z</time></trkpt>
<trkpt lat="50.707243" lon="4.601231"><time>2026-05-08T07:28:50Z</time></trkpt>
</trkseg></trk>
<trk>
<name>bwvbg6</name>
<cmt>d</cmt>
<desc>Bierges Chemin n°6 Rue aux Loups / Rue de la Carrière</desc>
<link href="https://chemins.be/bierges/chemin/6"/><trkseg>
<trkpt lat="50.707243" lon="4.601231"><time>2026-05-08T07:28:50Z</time></trkpt>
<trkpt lat="50.707280" lon="4.601778"><time>2026-05-08T07:38:50Z</time></trkpt>
<trkpt lat="50.707447" lon="4.602040"><time>2026-05-08T07:48:50Z</time></trkpt>
<trkpt lat="50.708403" lon="4.603369"><time>2026-05-08T07:58:50Z</time></trkpt>
</trkseg></trk>
<trk>
<name>bwvbg6</name>
<cmt>s</cmt>
<desc>Bierges Chemin n°6 Rue aux Loups / Rue de la Carrière</desc>
<link href="https://chemins.be/bierges/chemin/6"/><trkseg>
<trkpt lat="50.708403" lon="4.603369"><time>2026-05-08T07:58:50Z</time></trkpt>
<trkpt lat="50.710224" lon="4.606623"><time>2026-05-08T08:08:50Z</time></trkpt>
</trkseg>
</trk>
<trk>
<name>bwvbg60</name>
<cmt>q</cmt>
<desc>Bierges Sentier n°60 </desc>
<link href="https://chemins.be/bierges/sentier/60"/><trkseg>
<trkpt lat="50.709593" lon="4.588695"><time>2026-05-08T07:08:50Z</time></trkpt>
<trkpt lat="50.709233" lon="4.588736"><time>2026-05-08T07:18:50Z</time></trkpt>
<trkpt lat="50.708882" lon="4.588862"><time>2026-05-08T07:28:50Z</time></trkpt>
</trkseg>
</trk>
<trk>
<name>bwvbg61</name>
<cmt>s</cmt>
<desc>Bierges Sentier n°61 </desc>
<link href="https://chemins.be/bierges/sentier/61"/><trkseg>
<trkpt lat="50.710885" lon="4.578348"><time>2026-05-08T07:08:50Z</time></trkpt>
<trkpt lat="50.710956" lon="4.578678"><time>2026-05-08T07:18:50Z</time></trkpt>
<trkpt lat="50.711293" lon="4.579052"><time>2026-05-08T07:28:50Z</time></trkpt>
<trkpt lat="50.711600" lon="4.579738"><time>2026-05-08T07:38:50Z</time></trkpt>
<trkpt lat="50.711589" lon="4.579858"><time>2026-05-08T07:48:50Z</time></trkpt>
</trkseg>
</trk>
<trk>
<name>bwvbg63</name>
<cmt>r</cmt>
<desc>Bierges Sentier n°63 Try de Champles</desc>
<link href="https://chemins.be/bierges/sentier/63"/><trkseg>
<trkpt lat="50.729742" lon="4.565226"><time>2026-05-08T07:08:50Z</time></trkpt>
<trkpt lat="50.730362" lon="4.564750"><time>2026-05-08T07:18:50Z</time></trkpt>
<trkpt lat="50.731019" lon="4.565201"><time>2026-05-08T07:28:50Z</time></trkpt>
</trkseg>
</trk>
<trk>
<name>bwvbg65</name>
<cmt>b</cmt>
<desc>Bierges Sentier n°65 </desc>
<link href="https://chemins.be/bierges/sentier/65"/><trkseg>
<trkpt lat="50.734418" lon="4.559399"><time>2026-05-08T07:08:50Z</time></trkpt>
<trkpt lat="50.734418" lon="4.559399"><time>2026-05-08T07:18:50Z</time></trkpt>
<trkpt lat="50.734625" lon="4.559519"><time>2026-05-08T07:28:50Z</time></trkpt>
<trkpt lat="50.734778" lon="4.559360"><time>2026-05-08T07:38:50Z</time></trkpt>
<trkpt lat="50.734982" lon="4.559437"><time>2026-05-08T07:48:50Z</time></trkpt>
<trkpt lat="50.735034" lon="4.559240"><time>2026-05-08T07:58:50Z</time></trkpt>
</trkseg>
</trk>
<trk>
<name>bwvbg8</name>
<cmt>v</cmt>
<desc>Bierges Chemin n°8 </desc>
<link href="https://chemins.be/bierges/chemin/8"/><trkseg>
<trkpt lat="50.710136" lon="4.583091"><time>2026-05-08T07:08:50Z</time></trkpt>
<trkpt lat="50.709750" lon="4.582859"><time>2026-05-08T07:18:50Z</time></trkpt>
<trkpt lat="50.708837" lon="4.583837"><time>2026-05-08T07:28:50Z</time></trkpt>
</trkseg>
</trk>
<trk>
<name>bwvbg88</name>
<cmt>v</cmt>
<desc>Bierges Sentier n°88 Rue des Etourneaux</desc>
<link href="https://chemins.be/bierges/sentier/88"/><trkseg>
<trkpt lat="50.725587" lon="4.573304"><time>2026-05-08T07:08:50Z</time></trkpt>
<trkpt lat="50.726244" lon="4.572769"><time>2026-05-08T07:18:50Z</time></trkpt>
</trkseg>
</trk>
<trk>
<name>bwvbg9</name>
<cmt>v</cmt>
<desc>Bierges Chemin n°9 Chemin des Tourterelles</desc>
<link href="https://chemins.be/bierges/chemin/9"/><trkseg>
<trkpt lat="50.711154" lon="4.577513"><time>2026-05-08T07:08:50Z</time></trkpt>
<trkpt lat="50.711154" lon="4.577369"><time>2026-05-08T07:18:50Z</time></trkpt>
<trkpt lat="50.711287" lon="4.576300"><time>2026-05-08T07:28:50Z</time></trkpt>
<trkpt lat="50.711496" lon="4.575154"><time>2026-05-08T07:38:50Z</time></trkpt>
<trkpt lat="50.711506" lon="4.574970"><time>2026-05-08T07:48:50Z</time></trkpt>
<trkpt lat="50.711497" lon="4.574744"><time>2026-05-08T07:58:50Z</time></trkpt>
<trkpt lat="50.711506" lon="4.574475"><time>2026-05-08T08:08:50Z</time></trkpt>
<trkpt lat="50.711715" lon="4.573485"><time>2026-05-08T08:18:50Z</time></trkpt>
<trkpt lat="50.711901" lon="4.573058"><time>2026-05-08T08:28:50Z</time></trkpt>
<trkpt lat="50.712067" lon="4.572679"><time>2026-05-08T08:38:50Z</time></trkpt>
<trkpt lat="50.712302" lon="4.571845"><time>2026-05-08T08:48:50Z</time></trkpt>
<trkpt lat="50.712402" lon="4.571392"><time>2026-05-08T08:58:50Z</time></trkpt>
<trkpt lat="50.712564" lon="4.570982"><time>2026-05-08T09:08:50Z</time></trkpt>
<trkpt lat="50.712628" lon="4.570770"><time>2026-05-08T09:18:50Z</time></trkpt>
<trkpt lat="50.712673" lon="4.570572"><time>2026-05-08T09:28:50Z</time></trkpt>
<trkpt lat="50.712691" lon="4.570388"><time>2026-05-08T09:38:50Z</time></trkpt>
<trkpt lat="50.712666" lon="4.569453"><time>2026-05-08T09:48:50Z</time></trkpt>
<trkpt lat="50.712675" lon="4.569269"><time>2026-05-08T09:58:50Z</time></trkpt>
<trkpt lat="50.712712" lon="4.568916"><time>2026-05-08T10:08:50Z</time></trkpt>
<trkpt lat="50.712812" lon="4.568307"><time>2026-05-08T10:18:50Z</time></trkpt>
<trkpt lat="50.712875" lon="4.568109"><time>2026-05-08T10:28:50Z</time></trkpt>
<trkpt lat="50.712965" lon="4.567982"><time>2026-05-08T10:38:50Z</time></trkpt>
</trkseg>
</trk>
<trk>
<name>bwvbgi1</name>
<cmt>v</cmt>
<desc>Bierges Sentier n°i1 Chemin des Bruyères</desc>
<link href="https://chemins.be/bierges/sentier/i1"/><trkseg>
<trkpt lat="50.721754" lon="4.559282"><time>2026-05-08T07:08:50Z</time></trkpt>
<trkpt lat="50.721206" lon="4.559138"><time>2026-05-08T07:18:50Z</time></trkpt>
<trkpt lat="50.721027" lon="4.558728"><time>2026-05-08T07:28:50Z</time></trkpt>
</trkseg>
</trk>
<trk>
<name>bwvbgi10</name>
<cmt>s</cmt>
<desc>Bierges Chemin n°i10 Rue des Templiers</desc>
<link href="https://chemins.be/bierges/chemin/i10"/><trkseg>
<trkpt lat="50.730874" lon="4.566518"><time>2026-05-08T07:08:50Z</time></trkpt>
<trkpt lat="50.732433" lon="4.567882"><time>2026-05-08T07:18:50Z</time></trkpt>
</trkseg>
</trk>
<trk>
<name>bwvbgi11</name>
<cmt>v</cmt>
<desc>Bierges Chemin n°i11 Avenue Bel Horizon</desc>
<link href="https://chemins.be/bierges/chemin/i11"/><trkseg>
<trkpt lat="50.709450" lon="4.592461"><time>2026-05-08T07:08:50Z</time></trkpt>
<trkpt lat="50.709681" lon="4.592478"><time>2026-05-08T07:18:50Z</time></trkpt>
</trkseg></trk>
<trk>
<name>bwvbgi11</name>
<cmt>r</cmt>
<desc>Bierges Chemin n°i11 Avenue Bel Horizon</desc>
<link href="https://chemins.be/bierges/chemin/i11"/><trkseg>
<trkpt lat="50.709681" lon="4.592478"><time>2026-05-08T07:18:50Z</time></trkpt>
<trkpt lat="50.710225" lon="4.592405"><time>2026-05-08T07:28:50Z</time></trkpt>
</trkseg></trk>
<trk>
<name>bwvbgi11</name>
<cmt>v</cmt>
<desc>Bierges Chemin n°i11 Avenue Bel Horizon</desc>
<link href="https://chemins.be/bierges/chemin/i11"/><trkseg>
<trkpt lat="50.710225" lon="4.592405"><time>2026-05-08T07:28:50Z</time></trkpt>
<trkpt lat="50.710369" lon="4.592328"><time>2026-05-08T07:38:50Z</time></trkpt>
</trkseg>
</trk>
<trk>
<name>bwvbgi12</name>
<cmt>v</cmt>
<desc>Bierges Sentier n°i12 </desc>
<link href="https://chemins.be/bierges/sentier/i12"/><trkseg>
<trkpt lat="50.709138" lon="4.567638"><time>2026-05-08T07:08:50Z</time></trkpt>
<trkpt lat="50.708913" lon="4.566930"><time>2026-05-08T07:18:50Z</time></trkpt>
<trkpt lat="50.708983" lon="4.566432"><time>2026-05-08T07:28:50Z</time></trkpt>
</trkseg>
</trk>
<trk>
<name>bwvbgi13</name>
<cmt>v</cmt>
<desc>Bierges Sentier n°i13 </desc>
<link href="https://chemins.be/bierges/sentier/i13"/><trkseg>
<trkpt lat="50.706058" lon="4.613681"><time>2026-05-08T07:08:50Z</time></trkpt>
<trkpt lat="50.705614" lon="4.613233"><time>2026-05-08T07:18:50Z</time></trkpt>
<trkpt lat="50.705431" lon="4.613413"><time>2026-05-08T07:28:50Z</time></trkpt>
<trkpt lat="50.705088" lon="4.613182"><time>2026-05-08T07:38:50Z</time></trkpt>
</trkseg>
</trk>
<trk>
<name>bwvbgi14</name>
<cmt>v</cmt>
<desc>Bierges Sentier n°i14 </desc>
<link href="https://chemins.be/bierges/sentier/i14"/><trkseg>
<trkpt lat="50.706168" lon="4.613450"><time>2026-05-08T07:08:50Z</time></trkpt>
<trkpt lat="50.705593" lon="4.612455"><time>2026-05-08T07:18:50Z</time></trkpt>
<trkpt lat="50.705692" lon="4.612284"><time>2026-05-08T07:28:50Z</time></trkpt>
<trkpt lat="50.705584" lon="4.612105"><time>2026-05-08T07:38:50Z</time></trkpt>
<trkpt lat="50.705403" lon="4.612105"><time>2026-05-08T07:48:50Z</time></trkpt>
<trkpt lat="50.705249" lon="4.611940"><time>2026-05-08T07:58:50Z</time></trkpt>
</trkseg>
</trk>
<trk>
<name>bwvbgi16</name>
<cmt>v</cmt>
<desc>Bierges Chemin n°i16 piste VTT</desc>
<link href="https://chemins.be/bierges/chemin/i16"/><trkseg>
<trkpt lat="50.730449" lon="4.563130"><time>2026-05-08T07:08:50Z</time></trkpt>
<trkpt lat="50.730367" lon="4.562858"><time>2026-05-08T07:18:50Z</time></trkpt>
<trkpt lat="50.730499" lon="4.561306"><time>2026-05-08T07:28:50Z</time></trkpt>
<trkpt lat="50.730472" lon="4.560383"><time>2026-05-08T07:38:50Z</time></trkpt>
<trkpt lat="50.730832" lon="4.559533"><time>2026-05-08T07:48:50Z</time></trkpt>
<trkpt lat="50.730938" lon="4.559310"><time>2026-05-08T07:58:50Z</time></trkpt>
<trkpt lat="50.731318" lon="4.558859"><time>2026-05-08T08:08:50Z</time></trkpt>
<trkpt lat="50.731477" lon="4.558981"><time>2026-05-08T08:18:50Z</time></trkpt>
</trkseg>
</trk>
<trk>
<name>bwvbgi17</name>
<cmt>v</cmt>
<desc>Bierges Chemin n°i17 </desc>
<link href="https://chemins.be/bierges/chemin/i17"/><trkseg>
<trkpt lat="50.722416" lon="4.578666"><time>2026-05-08T07:08:50Z</time></trkpt>
<trkpt lat="50.722267" lon="4.578099"><time>2026-05-08T07:18:50Z</time></trkpt>
<trkpt lat="50.721986" lon="4.577132"><time>2026-05-08T07:28:50Z</time></trkpt>
<trkpt lat="50.721880" lon="4.576988"><time>2026-05-08T07:38:50Z</time></trkpt>
<trkpt lat="50.721880" lon="4.576903"><time>2026-05-08T07:48:50Z</time></trkpt>
</trkseg>
</trk>
<trk>
<name>bwvbgi18</name>
<cmt>v</cmt>
<desc>Bierges Sentier n°i18 </desc>
<link href="https://chemins.be/bierges/sentier/i18"/><trkseg>
<trkpt lat="50.728986" lon="4.580159"><time>2026-05-08T07:08:50Z</time></trkpt>
<trkpt lat="50.729003" lon="4.579909"><time>2026-05-08T07:18:50Z</time></trkpt>
<trkpt lat="50.729137" lon="4.579743"><time>2026-05-08T07:28:50Z</time></trkpt>
</trkseg>
</trk>
<trk>
<name>bwvbgi19</name>
<cmt>v</cmt>
<desc>Bierges Sentier n°i19 </desc>
<link href="https://chemins.be/bierges/sentier/i19"/><trkseg>
<trkpt lat="50.714485" lon="4.580296"><time>2026-05-08T07:08:50Z</time></trkpt>
<trkpt lat="50.714385" lon="4.579487"><time>2026-05-08T07:18:50Z</time></trkpt>
<trkpt lat="50.714616" lon="4.577563"><time>2026-05-08T07:28:50Z</time></trkpt>
</trkseg>
</trk>
<trk>
<name>bwvbgi2</name>
<cmt>q</cmt>
<desc>Bierges Chemin n°i2 </desc>
<link href="https://chemins.be/bierges/chemin/i2"/><trkseg>
<trkpt lat="50.725719" lon="4.558887"><time>2026-05-08T07:08:50Z</time></trkpt>
<trkpt lat="50.725379" lon="4.557823"><time>2026-05-08T07:18:50Z</time></trkpt>
</trkseg>
</trk>
<trk>
<name>bwvbgi20</name>
<cmt>r</cmt>
<desc>Bierges Chemin n°i20 Rue du Blanc Try</desc>
<link href="https://chemins.be/bierges/chemin/i20"/><trkseg>
<trkpt lat="50.715810" lon="4.573229"><time>2026-05-08T07:08:50Z</time></trkpt>
<trkpt lat="50.714958" lon="4.576519"><time>2026-05-08T07:18:50Z</time></trkpt>
<trkpt lat="50.714700" lon="4.577449"><time>2026-05-08T07:28:50Z</time></trkpt>
<trkpt lat="50.714379" lon="4.577656"><time>2026-05-08T07:38:50Z</time></trkpt>
<trkpt lat="50.714000" lon="4.577618"><time>2026-05-08T07:48:50Z</time></trkpt>
<trkpt lat="50.713314" lon="4.577470"><time>2026-05-08T07:58:50Z</time></trkpt>
<trkpt lat="50.712603" lon="4.576262"><time>2026-05-08T08:08:50Z</time></trkpt>
<trkpt lat="50.712499" lon="4.575625"><time>2026-05-08T08:18:50Z</time></trkpt>
</trkseg>
</trk>
<trk>
<name>bwvbgi21</name>
<cmt>s</cmt>
<desc>Bierges Chemin n°i21 </desc>
<link href="https://chemins.be/bierges/chemin/i21"/><trkseg>
<trkpt lat="50.719066" lon="4.560404"><time>2026-05-08T07:08:50Z</time></trkpt>
<trkpt lat="50.718808" lon="4.561134"><time>2026-05-08T07:18:50Z</time></trkpt>
<trkpt lat="50.718785" lon="4.562636"><time>2026-05-08T07:28:50Z</time></trkpt>
<trkpt lat="50.719152" lon="4.565218"><time>2026-05-08T07:38:50Z</time></trkpt>
<trkpt lat="50.719505" lon="4.566706"><time>2026-05-08T07:48:50Z</time></trkpt>
<trkpt lat="50.719577" lon="4.567299"><time>2026-05-08T07:58:50Z</time></trkpt>
<trkpt lat="50.719573" lon="4.568008"><time>2026-05-08T08:08:50Z</time></trkpt>
</trkseg>
</trk>
<trk>
<name>bwvbgi22</name>
<cmt>v</cmt>
<desc>Bierges Sentier n°i22 </desc>
<link href="https://chemins.be/bierges/sentier/i22"/><trkseg>
<trkpt lat="50.708234" lon="4.595764"><time>2026-05-08T07:08:50Z</time></trkpt>
<trkpt lat="50.707385" lon="4.594608"><time>2026-05-08T07:18:50Z</time></trkpt>
</trkseg>
</trk>
<trk>
<name>bwvbgi23</name>
<cmt>v</cmt>
<desc>Bierges Sentier n°i23 </desc>
<link href="https://chemins.be/bierges/sentier/i23"/><trkseg>
<trkpt lat="50.711929" lon="4.564115"><time>2026-05-08T07:08:50Z</time></trkpt>
<trkpt lat="50.711988" lon="4.563721"><time>2026-05-08T07:18:50Z</time></trkpt>
</trkseg>
</trk>
<trk>
<name>bwvbgi24</name>
<cmt>v</cmt>
<desc>Bierges Sentier n°i24 </desc>
<link href="https://chemins.be/bierges/sentier/i24"/><trkseg>
<trkpt lat="50.726743" lon="4.580255"><time>2026-05-08T07:08:50Z</time></trkpt>
<trkpt lat="50.726835" lon="4.580961"><time>2026-05-08T07:18:50Z</time></trkpt>
<trkpt lat="50.726917" lon="4.581124"><time>2026-05-08T07:28:50Z</time></trkpt>
</trkseg>
</trk>
<trk>
<name>bwvbgi25</name>
<cmt>v</cmt>
<desc>Bierges Chemin n°i25 </desc>
<link href="https://chemins.be/bierges/chemin/i25"/><trkseg>
<trkpt lat="50.716733" lon="4.558833"><time>2026-05-08T07:08:50Z</time></trkpt>
<trkpt lat="50.716809" lon="4.559073"><time>2026-05-08T07:18:50Z</time></trkpt>
<trkpt lat="50.716570" lon="4.559760"><time>2026-05-08T07:28:50Z</time></trkpt>
<trkpt lat="50.716646" lon="4.561948"><time>2026-05-08T07:38:50Z</time></trkpt>
<trkpt lat="50.716945" lon="4.563613"><time>2026-05-08T07:48:50Z</time></trkpt>
<trkpt lat="50.716575" lon="4.565888"><time>2026-05-08T07:58:50Z</time></trkpt>
</trkseg>
</trk>
<trk>
<name>bwvbgi3</name>
<cmt>v</cmt>
<desc>Bierges Chemin n°i3 </desc>
<link href="https://chemins.be/bierges/chemin/i3"/><trkseg>
<trkpt lat="50.713118" lon="4.601944"><time>2026-05-08T07:08:50Z</time></trkpt>
<trkpt lat="50.712989" lon="4.601771"><time>2026-05-08T07:18:50Z</time></trkpt>
<trkpt lat="50.712654" lon="4.601372"><time>2026-05-08T07:28:50Z</time></trkpt>
<trkpt lat="50.712523" lon="4.601138"><time>2026-05-08T07:38:50Z</time></trkpt>
<trkpt lat="50.712059" lon="4.600615"><time>2026-05-08T07:48:50Z</time></trkpt>
</trkseg></trk>
<trk>
<name>bwvbgi3</name>
<cmt>b</cmt>
<desc>Bierges Chemin n°i3 </desc>
<link href="https://chemins.be/bierges/chemin/i3"/><trkseg>
<trkpt lat="50.712059" lon="4.600615"><time>2026-05-08T07:48:50Z</time></trkpt>
<trkpt lat="50.711470" lon="4.599880"><time>2026-05-08T07:58:50Z</time></trkpt>
<trkpt lat="50.710971" lon="4.599324"><time>2026-05-08T08:08:50Z</time></trkpt>
<trkpt lat="50.710780" lon="4.599158"><time>2026-05-08T08:18:50Z</time></trkpt>
<trkpt lat="50.710503" lon="4.598870"><time>2026-05-08T08:28:50Z</time></trkpt>
<trkpt lat="50.710266" lon="4.598714"><time>2026-05-08T08:38:50Z</time></trkpt>
<trkpt lat="50.710011" lon="4.598542"><time>2026-05-08T08:48:50Z</time></trkpt>
<trkpt lat="50.709779" lon="4.598463"><time>2026-05-08T08:58:50Z</time></trkpt>
<trkpt lat="50.709649" lon="4.598404"><time>2026-05-08T09:08:50Z</time></trkpt>
<trkpt lat="50.709520" lon="4.598293"><time>2026-05-08T09:18:50Z</time></trkpt>
<trkpt lat="50.709364" lon="4.598119"><time>2026-05-08T09:28:50Z</time></trkpt>
<trkpt lat="50.709264" lon="4.597887"><time>2026-05-08T09:38:50Z</time></trkpt>
<trkpt lat="50.709167" lon="4.597579"><time>2026-05-08T09:48:50Z</time></trkpt>
<trkpt lat="50.709106" lon="4.597271"><time>2026-05-08T09:58:50Z</time></trkpt>
<trkpt lat="50.709060" lon="4.597111"><time>2026-05-08T10:08:50Z</time></trkpt>
<trkpt lat="50.708981" lon="4.596994"><time>2026-05-08T10:18:50Z</time></trkpt>
<trkpt lat="50.708589" lon="4.596564"><time>2026-05-08T10:28:50Z</time></trkpt>
</trkseg>
</trk>
<trk>
<name>bwvbgi4</name>
<cmt>v</cmt>
<desc>Bierges Sentier n°i4 Sentier de la Rive Gauche</desc>
<link href="https://chemins.be/bierges/sentier/i4"/><trkseg>
<trkpt lat="50.705780" lon="4.589074"><time>2026-05-08T07:08:50Z</time></trkpt>
<trkpt lat="50.705276" lon="4.589680"><time>2026-05-08T07:18:50Z</time></trkpt>
<trkpt lat="50.705104" lon="4.589878"><time>2026-05-08T07:28:50Z</time></trkpt>
<trkpt lat="50.704906" lon="4.590061"><time>2026-05-08T07:38:50Z</time></trkpt>
<trkpt lat="50.704699" lon="4.590244"><time>2026-05-08T07:48:50Z</time></trkpt>
<trkpt lat="50.704654" lon="4.590286"><time>2026-05-08T07:58:50Z</time></trkpt>
<trkpt lat="50.704672" lon="4.590343"><time>2026-05-08T08:08:50Z</time></trkpt>
<trkpt lat="50.705443" lon="4.591507"><time>2026-05-08T08:18:50Z</time></trkpt>
<trkpt lat="50.705416" lon="4.591550"><time>2026-05-08T08:28:50Z</time></trkpt>
<trkpt lat="50.705353" lon="4.591450"><time>2026-05-08T08:38:50Z</time></trkpt>
<trkpt lat="50.705192" lon="4.591209"><time>2026-05-08T08:48:50Z</time></trkpt>
<trkpt lat="50.705021" lon="4.591321"><time>2026-05-08T08:58:50Z</time></trkpt>
<trkpt lat="50.705200" lon="4.591676"><time>2026-05-08T09:08:50Z</time></trkpt>
<trkpt lat="50.704316" lon="4.593089"><time>2026-05-08T09:18:50Z</time></trkpt>
<trkpt lat="50.704297" lon="4.593068"><time>2026-05-08T09:28:50Z</time></trkpt>
<trkpt lat="50.703820" lon="4.593736"><time>2026-05-08T09:38:50Z</time></trkpt>
<trkpt lat="50.703415" lon="4.594201"><time>2026-05-08T09:48:50Z</time></trkpt>
<trkpt lat="50.703388" lon="4.594116"><time>2026-05-08T09:58:50Z</time></trkpt>
</trkseg>
</trk>
<trk>
<name>bwvbgi5</name>
<cmt>s</cmt>
<desc>Bierges Sentier n°i5 Rue Guillaume Malcorps</desc>
<link href="https://chemins.be/bierges/sentier/i5"/><trkseg>
<trkpt lat="50.711082" lon="4.585304"><time>2026-05-08T07:08:50Z</time></trkpt>
<trkpt lat="50.711127" lon="4.585630"><time>2026-05-08T07:18:50Z</time></trkpt>
<trkpt lat="50.711064" lon="4.585644"><time>2026-05-08T07:28:50Z</time></trkpt>
<trkpt lat="50.710936" lon="4.586521"><time>2026-05-08T07:38:50Z</time></trkpt>
</trkseg>
</trk>
<trk>
<name>bwvbgi6</name>
<cmt>v</cmt>
<desc>Bierges Sentier n°i6 </desc>
<link href="https://chemins.be/bierges/sentier/i6"/><trkseg>
<trkpt lat="50.708712" lon="4.611174"><time>2026-05-08T07:08:50Z</time></trkpt>
<trkpt lat="50.708018" lon="4.610072"><time>2026-05-08T07:18:50Z</time></trkpt>
</trkseg>
</trk>
<trk>
<name>bwvbgi7</name>
<cmt>r</cmt>
<desc>Bierges Chemin n°i7 Chemin des Charrons</desc>
<link href="https://chemins.be/bierges/chemin/i7"/><trkseg>
<trkpt lat="50.699298" lon="4.616902"><time>2026-05-08T07:08:50Z</time></trkpt>
<trkpt lat="50.699970" lon="4.616348"><time>2026-05-08T07:18:50Z</time></trkpt>
<trkpt lat="50.701379" lon="4.615466"><time>2026-05-08T07:28:50Z</time></trkpt>
</trkseg></trk>
<trk>
<name>bwvbgi7</name>
<cmt>v</cmt>
<desc>Bierges Chemin n°i7 Chemin des Charrons</desc>
<link href="https://chemins.be/bierges/chemin/i7"/><trkseg>
<trkpt lat="50.701379" lon="4.615466"><time>2026-05-08T07:28:50Z</time></trkpt>
<trkpt lat="50.701853" lon="4.615130"><time>2026-05-08T07:38:50Z</time></trkpt>
<trkpt lat="50.702538" lon="4.614299"><time>2026-05-08T07:48:50Z</time></trkpt>
<trkpt lat="50.702998" lon="4.613848"><time>2026-05-08T07:58:50Z</time></trkpt>
<trkpt lat="50.703475" lon="4.613553"><time>2026-05-08T08:08:50Z</time></trkpt>
<trkpt lat="50.703971" lon="4.612947"><time>2026-05-08T08:18:50Z</time></trkpt>
<trkpt lat="50.704501" lon="4.612851"><time>2026-05-08T08:28:50Z</time></trkpt>
<trkpt lat="50.705204" lon="4.612005"><time>2026-05-08T08:38:50Z</time></trkpt>
</trkseg>
</trk>
<trk>
<name>bwvbgi8</name>
<cmt>v</cmt>
<desc>Bierges Chemin n°i8 Rue du Bois Wilmet</desc>
<link href="https://chemins.be/bierges/chemin/i8"/><trkseg>
<trkpt lat="50.711144" lon="4.565780"><time>2026-05-08T07:08:50Z</time></trkpt>
<trkpt lat="50.711054" lon="4.565794"><time>2026-05-08T07:18:50Z</time></trkpt>
<trkpt lat="50.710478" lon="4.566343"><time>2026-05-08T07:28:50Z</time></trkpt>
<trkpt lat="50.709640" lon="4.567076"><time>2026-05-08T07:38:50Z</time></trkpt>
<trkpt lat="50.709451" lon="4.567273"><time>2026-05-08T07:48:50Z</time></trkpt>
<trkpt lat="50.709118" lon="4.567640"><time>2026-05-08T07:58:50Z</time></trkpt>
</trkseg></trk>
<trk>
<name>bwvbgi8</name>
<cmt>q</cmt>
<desc>Bierges Chemin n°i8 Rue du Bois Wilmet</desc>
<link href="https://chemins.be/bierges/chemin/i8"/><trkseg>
<trkpt lat="50.709118" lon="4.567640"><time>2026-05-08T07:58:50Z</time></trkpt>
<trkpt lat="50.709120" lon="4.567638"><time>2026-05-08T08:08:50Z</time></trkpt>
<trkpt lat="50.709037" lon="4.567852"><time>2026-05-08T08:18:50Z</time></trkpt>
<trkpt lat="50.709044" lon="4.568588"><time>2026-05-08T08:28:50Z</time></trkpt>
<trkpt lat="50.709080" lon="4.568730"><time>2026-05-08T08:38:50Z</time></trkpt>
<trkpt lat="50.709358" lon="4.569298"><time>2026-05-08T08:48:50Z</time></trkpt>
</trkseg>
</trk>
<trk>
<name>bwvbgi9</name>
<cmt>v</cmt>
<desc>Bierges Chemin n°i9 </desc>
<link href="https://chemins.be/bierges/chemin/i9"/><trkseg>
<trkpt lat="50.735943" lon="4.576912"><time>2026-05-08T07:08:50Z</time></trkpt>
<trkpt lat="50.730467" lon="4.579358"><time>2026-05-08T07:18:50Z</time></trkpt>
</trkseg>
</trk>
<trk>
<name>bwvbgL917</name>
<cmt>s</cmt>
<desc>Bierges Chemin n°L917 </desc>
<link href="https://chemins.be/bierges/chemin/L917"/><trkseg>
<trkpt lat="50.706773" lon="4.588723"><time>2026-05-08T07:08:50Z</time></trkpt>
<trkpt lat="50.706842" lon="4.586505"><time>2026-05-08T07:18:50Z</time></trkpt>
<trkpt lat="50.706902" lon="4.584593"><time>2026-05-08T07:28:50Z</time></trkpt>
<trkpt lat="50.706916" lon="4.584249"><time>2026-05-08T07:38:50Z</time></trkpt>
</trkseg></trk>
<trk>
<name>bwvbgL917</name>
<cmt>r</cmt>
<desc>Bierges Chemin n°L917 </desc>
<link href="https://chemins.be/bierges/chemin/L917"/><trkseg>
<trkpt lat="50.706916" lon="4.584249"><time>2026-05-08T07:38:50Z</time></trkpt>
<trkpt lat="50.707176" lon="4.583369"><time>2026-05-08T07:48:50Z</time></trkpt>
</trkseg></trk>
<trk>
<name>bwvbgL917</name>
<cmt>v</cmt>
<desc>Bierges Chemin n°L917 </desc>
<link href="https://chemins.be/bierges/chemin/L917"/><trkseg>
<trkpt lat="50.707176" lon="4.583369"><time>2026-05-08T07:48:50Z</time></trkpt>
<trkpt lat="50.707533" lon="4.582305"><time>2026-05-08T07:58:50Z</time></trkpt>
<trkpt lat="50.707593" lon="4.581841"><time>2026-05-08T08:08:50Z</time></trkpt>
<trkpt lat="50.707571" lon="4.581318"><time>2026-05-08T08:18:50Z</time></trkpt>
<trkpt lat="50.707179" lon="4.578987"><time>2026-05-08T08:28:50Z</time></trkpt>
<trkpt lat="50.707120" lon="4.578528"><time>2026-05-08T08:38:50Z</time></trkpt>
<trkpt lat="50.707060" lon="4.577919"><time>2026-05-08T08:48:50Z</time></trkpt>
<trkpt lat="50.707075" lon="4.576589"><time>2026-05-08T08:58:50Z</time></trkpt>
<trkpt lat="50.707084" lon="4.575824"><time>2026-05-08T09:08:50Z</time></trkpt>
<trkpt lat="50.707050" lon="4.575267"><time>2026-05-08T09:18:50Z</time></trkpt>
<trkpt lat="50.706908" lon="4.574417"><time>2026-05-08T09:28:50Z</time></trkpt>
<trkpt lat="50.706865" lon="4.573928"><time>2026-05-08T09:38:50Z</time></trkpt>
<trkpt lat="50.706908" lon="4.573490"><time>2026-05-08T09:48:50Z</time></trkpt>
<trkpt lat="50.707093" lon="4.572615"><time>2026-05-08T09:58:50Z</time></trkpt>
<trkpt lat="50.707109" lon="4.572168"><time>2026-05-08T10:08:50Z</time></trkpt>
<trkpt lat="50.707060" lon="4.571653"><time>2026-05-08T10:18:50Z</time></trkpt>
<trkpt lat="50.706892" lon="4.571207"><time>2026-05-08T10:28:50Z</time></trkpt>
<trkpt lat="50.706705" lon="4.570857"><time>2026-05-08T10:38:50Z</time></trkpt>
</trkseg>
</trk>
</gpx>